W4HSV Weather Reports


time (UTC)temp
C
wind
direction
speed
KPH
gust
KPH
rain 1hr
cm
rain 24hr
cm
rain mn
cm
humidity
%
barometer
mb
20260904135721 30 120 1.6 6.4 0.00 0.00 0.00 73 1016.5
20260904135627 30 96 0.0 6.4 0.00 0.00 0.00 72 1016.5
20260904135535 30 120 1.6 6.4 0.00 0.00 0.00 73 1016.5
20260904135419 30 120 3.2 6.4 0.00 0.00 0.00 73 1016.5
20260904135327 30 119 3.2 6.4 0.00 0.00 0.00 73 1016.5
20260904135237 30 129 1.6 6.4 0.00 0.00 0.00 73 1016.5
20260904135143 30 96 3.2 6.4 0.00 0.00 0.00 73 1016.5
20260904135027 30 92 4.8 6.4 0.00 0.00 0.00 73 1016.4
20260904134953 30 107 4.8 6.4 0.00 0.00 0.00 74 1016.5
20260904134819 30 146 1.6 6.4 0.00 0.00 0.00 72 1016.5
20260904134753 30 127 1.6 6.4 0.00 0.00 0.00 73 1016.5
20260904134525 30 79 1.6 4.8 0.00 0.00 0.00 73 1016.5
20260904134433 30 79 3.2 4.8 0.00 0.00 0.00 73 1016.5
20260904134319 30 113 4.8 4.8 0.00 0.00 0.00 72 1016.5
20260904134226 30 131 3.2 4.8 0.00 0.00 0.00 72 1016.5
20260904134117 30 90 1.6 4.8 0.00 0.00 0.00 72 1016.5
20260904134024 30 118 1.6 4.8 0.00 0.00 0.00 73 1016.6
20260904133931 30 117 0.0 4.8 0.00 0.00 0.00 73 1016.5
20260904133819 30 98 1.6 4.8 0.00 0.00 0.00 73 1016.5
20260904133727 30 98 1.6 4.8 0.00 0.00 0.00 73 1016.5
20260904133634 30 123 1.6 4.8 0.00 0.00 0.00 72 1016.5
20260904133524 30 107 1.6 4.8 0.00 0.00 0.00 73 1016.4
20260904133431 30 107 1.6 4.8 0.00 0.00 0.00 73 1016.5
20260904133338 30 78 1.6 4.8 0.00 0.00 0.00 73 1016.5
20260904133309 30 88 1.6 4.8 0.00 0.00 0.00 73 1016.5
20260904133025 30 84 1.6 4.8 0.00 0.00 0.00 73 1016.4
20260904132933 30 126 0.0 3.2 0.00 0.00 0.00 73 1016.5
20260904132858 30 53 0.0 4.8 0.00 0.00 0.00 73 1016.6
20260904132743 30 53 0.0 4.8 0.00 0.00 0.00 73 1016.5
20260904132649 30 109 0.0 4.8 0.00 0.00 0.00 73 1016.6
20260904132537 30 110 0.0 4.8 0.00 0.00 0.00 73 1016.5
20260904132443 30 94 0.0 4.8 0.00 0.00 0.00 74 1016.5
20260904132329 30 112 1.6 4.8 0.00 0.00 0.00 73 1016.6
20260904132220 30 154 1.6 4.8 0.00 0.00 0.00 74 1016.5
20260904132127 30 66 1.6 4.8 0.00 0.00 0.00 74 1016.5
20260904132033 30 71 1.6 4.8 0.00 0.00 0.00 75 1016.5
20260904131920 30 80 1.6 4.8 0.00 0.00 0.00 75 1016.5
20260904131849 30 57 1.6 4.8 0.00 0.00 0.00 75 1016.5
20260904131802 30 71 1.6 4.8 0.00 0.00 0.00 75 1016.5
20260904131554 30 74 3.2 4.8 0.00 0.00 0.00 76 1016.5
20260904131420 30 99 1.6 3.2 0.00 0.00 0.00 76 1016.5
20260904131326 30 85 0.0 3.2 0.00 0.00 0.00 77 1016.5
20260904131234 30 76 0.0 3.2 0.00 0.00 0.00 77 1016.4
20260904131125 29 126 1.6 3.2 0.00 0.00 0.00 77 1016.4
20260904131051 29 126 1.6 3.2 0.00 0.00 0.00 77 1016.4
20260904130917 29 119 0.0 3.2 0.00 0.00 0.00 78 1016.5
20260904130825 29 107 0.0 1.6 0.00 0.00 0.00 78 1016.5
20260904130752 29 67 0.0 1.6 0.00 0.00 0.00 78 1016.4
20260904130617 29 360 0.0 0.0 0.00 0.00 0.00 78 1016.5
20260904130523 29 360 0.0 0.0 0.00 0.00 0.00 79 1016.5
20260904130435 28 360 0.0 0.0 0.00 0.00 0.00 79 1016.6
20260904130322 28 360 0.0 0.0 0.00 0.00 0.00 80 1016.4
20260904130253 28 360 0.0 1.6 0.00 0.00 0.00 80 1016.4
20260904130027 28 360 0.0 1.6 0.00 0.00 0.00 80 1016.4
20260904125937 28 360 0.0 3.2 0.00 0.00 0.00 80 1016.5
20260904125844 28 360 0.0 3.2 0.00 0.00 0.00 81 1016.4
20260904125728 28 360 0.0 3.2 0.00 0.00 0.00 81 1016.4
20260904125636 28 360 0.0 3.2 0.00 0.00 0.00 81 1016.4
20260904125523 28 360 0.0 3.2 0.00 0.00 0.00 81 1016.5
20260904125429 28 360 0.0 3.2 0.00 0.00 0.00 81 1016.5
20260904125320 28 360 0.0 3.2 0.00 0.00 0.00 81 1016.5
20260904125227 28 360 0.0 3.2 0.00 0.00 0.00 82 1016.4
20260904125133 28 360 1.6 3.2 0.00 0.00 0.00 83 1016.3
20260904125020 28 360 0.0 3.2 0.00 0.00 0.00 82 1016.4
20260904124926 27 360 0.0 3.2 0.00 0.00 0.00 82 1016.4
20260904124833 27 360 0.0 3.2 0.00 0.00 0.00 82 1016.4
20260904124808 27 360 0.0 3.2 0.00 0.00 0.00 83 1016.4
20260904124521 27 360 1.6 3.2 0.00 0.00 0.00 82 1016.4
20260904124448 27 360 1.6 3.2 0.00 0.00 0.00 83 1016.3
20260904124334 27 360 1.6 3.2 0.00 0.00 0.00 82 1016.3
20260904124224 27 360 1.6 3.2 0.00 0.00 0.00 83 1016.2
20260904124151 27 360 1.6 3.2 0.00 0.00 0.00 83 1016.4
20260904124036 27 360 0.0 4.8 0.00 0.00 0.00 84 1016.3
20260904123923 27 360 0.0 4.8 0.00 0.00 0.00 84 1016.3
20260904123848 27 360 0.0 4.8 0.00 0.00 0.00 84 1016.3
20260904123733 27 360 0.0 4.8 0.00 0.00 0.00 84 1016.3
20260904123620 27 360 0.0 4.8 0.00 0.00 0.00 84 1016.3
20260904123550 27 360 1.6 4.8 0.00 0.00 0.00 84 1016.2
20260904123435 27 360 1.6 4.8 0.00 0.00 0.00 84 1016.3
20260904123323 26 360 1.6 3.2 0.00 0.00 0.00 85 1016.3
20260904123253 26 360 1.6 3.2 0.00 0.00 0.00 85 1016.3
20260904123046 26 140 0.0 1.6 0.00 0.00 0.00 85 1016.2
20260904122953 26 140 0.0 0.0 0.00 0.00 0.00 85 1016.2
20260904122823 26 140 0.0 0.0 0.00 0.00 0.00 86 1016.2
20260904122729 26 140 0.0 1.6 0.00 0.00 0.00 86 1016.2
20260904122635 26 140 0.0 1.6 0.00 0.00 0.00 86 1016.2
20260904122521 26 140 0.0 3.2 0.00 0.00 0.00 86 1016.2
20260904122430 26 140 0.0 3.2 0.00 0.00 0.00 87 1016.2
20260904122340 26 140 0.0 3.2 0.00 0.00 0.00 87 1016.1
20260904122246 26 140 0.0 3.2 0.00 0.00 0.00 87 1016.1
20260904122133 26 140 0.0 3.2 0.00 0.00 0.00 87 1016.1
20260904122020 26 140 0.0 3.2 0.00 0.00 0.00 87 1016.1
20260904121926 26 140 1.6 3.2 0.00 0.00 0.00 87 1016.1
20260904121833 26 140 1.6 3.2 0.00 0.00 0.00 87 1016.2
20260904121809 26 140 1.6 3.2 0.00 0.00 0.00 88 1016.2
20260904121522 25 140 0.0 3.2 0.00 0.00 0.00 88 1016.1
20260904121448 25 140 0.0 3.2 0.00 0.00 0.00 88 1016.1
20260904121336 25 140 0.0 3.2 0.00 0.00 0.00 88 1016.1
20260904121224 25 140 1.6 3.2 0.00 0.00 0.00 88 1016.1
20260904121134 25 140 1.6 3.2 0.00 0.00 0.00 88 1016.1
20260904121021 25 140 1.6 3.2 0.00 0.00 0.00 88 1016.1
20260904120948 25 140 1.6 3.2 0.00 0.00 0.00 88 1016.1
20260904120835 25 140 1.6 3.2 0.00 0.00 0.00 89 1016.1
20260904120722 25 140 1.6 3.2 0.00 0.00 0.00 89 1016.1
20260904120630 25 140 1.6 3.2 0.00 0.00 0.00 89 1016.1
20260904120522 25 140 1.6 3.2 0.00 0.00 0.00 89 1016.1
20260904120448 25 140 1.6 3.2 0.00 0.00 0.00 89 1016.1
20260904120355 25 140 1.6 3.2 0.00 0.00 0.00 89 1016.1
20260904120304 25 140 1.6 3.2 0.00 0.00 0.00 90 1016.1
20260904120036 25 140 3.2 3.2 0.00 0.00 0.00 90 1016.0
20260904115926 25 140 3.2 3.2 0.00 0.00 0.00 90 1015.9
20260904115833 25 140 1.6 3.2 0.00 0.00 0.00 90 1016.0
20260904115719 25 140 1.6 3.2 0.00 0.00 0.00 90 1016.0
20260904115627 25 140 1.6 3.2 0.00 0.00 0.00 90 1016.0
20260904115535 25 140 1.6 3.2 0.00 0.00 0.00 90 1016.0
20260904115420 25 155 0.0 3.2 0.00 0.00 0.00 90 1016.0
20260904115332 25 155 0.0 3.2 0.00 0.00 0.00 91 1016.1
20260904115219 25 155 1.6 3.2 0.00 0.00 0.00 91 1016.0
20260904115126 25 155 1.6 3.2 0.00 0.00 0.00 91 1015.9
20260904115034 25 155 0.0 3.2 0.00 0.00 0.00 91 1016.0
20260904114921 25 109 1.6 3.2 0.00 0.00 0.00 90 1015.9
20260904114802 24 109 0.0 3.2 0.00 0.00 0.00 91 1016.0
20260904114536 24 109 0.0 0.0 0.00 0.00 0.00 91 1016.0
20260904114424 24 109 0.0 0.0 0.00 0.00 0.00 91 1015.9
20260904114330 24 109 0.0 1.6 0.00 0.00 0.00 91 1015.9
20260904114220 24 109 0.0 3.2 0.00 0.00 0.00 91 1016.0
20260904114128 24 109 0.0 3.2 0.00 0.00 0.00 91 1015.9
20260904114037 24 109 0.0 4.8 0.00 0.00 0.00 91 1016.0
20260904113924 24 109 0.0 4.8 0.00 0.00 0.00 91 1015.9
20260904113829 24 109 0.0 4.8 0.00 0.00 0.00 91 1015.9
20260904113721 24 109 0.0 4.8 0.00 0.00 0.00 91 1015.9
20260904113628 24 109 0.0 4.8 0.00 0.00 0.00 92 1015.9
20260904113557 24 109 0.0 4.8 0.00 0.00 0.00 92 1015.9
20260904113424 24 109 1.6 4.8 0.00 0.00 0.00 92 1015.7
20260904113305 24 109 1.6 4.8 0.00 0.00 0.00 92 1015.9
20260904113018 24 69 0.0 3.2 0.00 0.00 0.00 92 1015.9
20260904112924 24 9 0.0 3.2 0.00 0.00 0.00 92 1015.8
20260904112852 24 9 0.0 3.2 0.00 0.00 0.00 92 1015.7
20260904112737 24 9 0.0 3.2 0.00 0.00 0.00 92 1015.8
20260904112623 24 5 0.0 3.2 0.00 0.00 0.00 91 1015.7
20260904112555 24 9 0.0 3.2 0.00 0.00 0.00 91 1015.8
20260904112421 24 9 0.0 3.2 0.00 0.00 0.00 92 1015.8
20260904112329 24 9 0.0 3.2 0.00 0.00 0.00 92 1015.7
20260904112256 24 9 0.0 3.2 0.00 0.00 0.00 92 1015.7
20260904112120 24 9 1.6 3.2 0.00 0.00 0.00 92 1015.7
20260904112049 24 9 1.6 4.8 0.00 0.00 0.00 91 1015.6
20260904111917 24 9 1.6 4.8 0.00 0.00 0.00 91 1015.6
20260904111828 24 5 1.6 4.8 0.00 0.00 0.00 91 1015.7
20260904111759 24 5 1.6 4.8 0.00 0.00 0.00 91 1015.7
20260904111532 24 9 1.6 4.8 0.00 0.00 0.00 91 1015.7
20260904111438 24 9 1.6 4.8 0.00 0.00 0.00 91 1015.8
20260904111325 24 9 1.6 4.8 0.00 0.00 0.00 92 1015.6
20260904111236 24 9 3.2 4.8 0.00 0.00 0.00 91 1015.8
20260904111123 24 9 3.2 4.8 0.00 0.00 0.00 91 1015.7
20260904111050 24 9 3.2 4.8 0.00 0.00 0.00 91 1015.7
20260904110935 24 9 3.2 4.8 0.00 0.00 0.00 91 1015.8
20260904110823 24 9 3.2 4.8 0.00 0.00 0.00 91 1015.8
20260904110729 24 9 3.2 4.8 0.00 0.00 0.00 91 1015.7
20260904110620 24 9 3.2 4.8 0.00 0.00 0.00 91 1015.7
20260904110527 24 9 3.2 4.8 0.00 0.00 0.00 91 1015.7
20260904110435 24 9 3.2 4.8 0.00 0.00 0.00 91 1015.6
20260904110320 24 9 3.2 4.8 0.00 0.00 0.00 91 1015.6
20260904110254 24 9 3.2 4.8 0.00 0.00 0.00 91 1015.6
20260904110026 24 5 3.2 4.8 0.00 0.00 0.00 91 1015.5
20260904105934 24 17 3.2 4.8 0.00 0.00 0.00 91 1015.5
20260904105822 24 355 3.2 4.8 0.00 0.00 0.00 91 1015.5
20260904105728 24 355 3.2 4.8 0.00 0.00 0.00 91 1015.4
20260904105620 24 355 3.2 4.8 0.00 0.00 0.00 91 1015.5
20260904105528 24 355 3.2 4.8 0.00 0.00 0.00 91 1015.4
20260904105435 24 355 3.2 4.8 0.00 0.00 0.00 91 1015.4
20260904105321 24 355 3.2 4.8 0.00 0.00 0.00 91 1015.5
20260904105227 24 355 3.2 4.8 0.00 0.00 0.00 91 1015.4
20260904105135 24 355 4.8 6.4 0.00 0.00 0.00 91 1015.3
20260904105026 24 5 3.2 6.4 0.00 0.00 0.00 91 1015.4
20260904104932 24 355 3.2 6.4 0.00 0.00 0.00 91 1015.3
20260904104811 24 5 3.2 6.4 0.00 0.00 0.00 91 1015.4
20260904104527 24 349 4.8 6.4 0.00 0.00 0.00 91 1015.4
20260904104433 24 350 4.8 6.4 0.00 0.00 0.00 91 1015.4
20260904104320 24 360 4.8 6.4 0.00 0.00 0.00 91 1015.4
20260904104226 24 355 4.8 6.4 0.00 0.00 0.00 91 1015.4
20260904104154 24 350 3.2 6.4 0.00 0.00 0.00 91 1015.4
20260904104019 24 355 3.2 4.8 0.00 0.00 0.00 91 1015.4
20260904103930 24 355 3.2 4.8 0.00 0.00 0.00 91 1015.4
20260904103818 24 355 3.2 4.8 0.00 0.00 0.00 91 1015.3
20260904103744 24 355 3.2 4.8 0.00 0.00 0.00 91 1015.3
20260904103650 24 355 3.2 4.8 0.00 0.00 0.00 91 1015.3
20260904103536 24 355 3.2 4.8 0.00 0.00 0.00 91 1015.3
20260904103423 24 355 3.2 4.8 0.00 0.00 0.00 91 1015.3
20260904103306 24 355 3.2 4.8 0.00 0.00 0.00 91 1015.4
20260904103039 24 355 3.2 4.8 0.00 0.00 0.00 91 1015.3
20260904102926 24 355 3.2 4.8 0.00 0.00 0.00 91 1015.4
20260904102854 24 355 3.2 4.8 0.00 0.00 0.00 91 1015.3
20260904102718 24 355 3.2 4.8 0.00 0.00 0.00 91 1015.3
20260904102630 24 355 3.2 4.8 0.00 0.00 0.00 91 1015.2
20260904102538 24 355 3.2 4.8 0.00 0.00 0.00 91 1015.3
20260904102423 24 355 3.2 4.8 0.00 0.00 0.00 91 1015.3
20260904102329 24 355 3.2 4.8 0.00 0.00 0.00 91 1015.3
20260904102256 24 355 3.2 6.4 0.00 0.00 0.00 91 1015.2
20260904102120 24 355 3.2 6.4 0.00 0.00 0.00 91 1015.2
20260904102027 24 355 3.2 6.4 0.00 0.00 0.00 91 1015.2
20260904101919 24 355 3.2 6.4 0.00 0.00 0.00 91 1015.3
20260904101846 24 355 3.2 6.4 0.00 0.00 0.00 91 1015.3
20260904101816 24 355 3.2 6.4 0.00 0.00 0.00 91 1015.3
20260904101528 24 344 4.8 6.4 0.00 0.00 0.00 91 1015.2
20260904101419 24 351 4.8 6.4 0.00 0.00 0.00 91 1015.1
20260904101325 24 340 4.8 4.8 0.00 0.00 0.00 91 1015.3
20260904101232 24 355 3.2 4.8 0.00 0.00 0.00 91 1015.1
20260904101119 24 338 3.2 4.8 0.00 0.00 0.00 91 1015.2
20260904101026 24 338 3.2 4.8 0.00 0.00 0.00 91 1015.2
20260904100932 24 5 3.2 4.8 0.00 0.00 0.00 91 1015.1
20260904100824 24 5 3.2 4.8 0.00 0.00 0.00 91 1015.2
20260904100732 24 5 3.2 3.2 0.00 0.00 0.00 91 1015.2
20260904100618 24 5 1.6 3.2 0.00 0.00 0.00 91 1015.2
20260904100545 24 5 0.0 4.8 0.00 0.00 0.00 91 1015.1
20260904100451 24 5 0.0 4.8 0.00 0.00 0.00 91 1015.2
20260904100318 24 5 0.0 4.8 0.00 0.00 0.00 91 1015.1
20260904100251 24 5 1.6 4.8 0.00 0.00 0.00 91 1015.1
20260904100023 24 5 1.6 4.8 0.00 0.00 0.00 91 1015.1
20260904095930 24 5 3.2 4.8 0.00 0.00 0.00 91 1015.0
20260904095836 24 5 3.2 4.8 0.00 0.00 0.00 90 1015.0
20260904095742 24 5 3.2 4.8 0.00 0.00 0.00 91 1015.0
20260904095626 24 5 3.2 4.8 0.00 0.00 0.00 91 1015.0
20260904095518 24 5 3.2 4.8 0.00 0.00 0.00 91 1015.1
20260904095424 24 5 3.2 4.8 0.00 0.00 0.00 91 1015.0
20260904095330 24 5 3.2 4.8 0.00 0.00 0.00 91 1015.0
20260904095236 24 5 3.2 4.8 0.00 0.00 0.00 91 1015.0
20260904095123 24 5 3.2 4.8 0.00 0.00 0.00 91 1015.0
20260904095034 24 5 3.2 4.8 0.00 0.00 0.00 91 1015.0
20260904094923 24 5 3.2 4.8 0.00 0.00 0.00 91 1015.0
20260904094850 24 351 4.8 4.8 0.00 0.00 0.00 91 1015.0
20260904094758 24 355 4.8 4.8 0.00 0.00 0.00 90 1015.0
20260904094533 24 355 3.2 4.8 0.00 0.00 0.00 90 1014.9
20260904094425 24 355 3.2 3.2 0.00 0.00 0.00 90 1015.0
20260904094332 24 325 3.2 3.2 0.00 0.00 0.00 90 1015.0
20260904094218 24 325 1.6 3.2 0.00 0.00 0.00 90 1015.0
20260904094124 24 325 1.6 3.2 0.00 0.00 0.00 90 1014.9
20260904094050 24 325 1.6 3.2 0.00 0.00 0.00 90 1015.0
20260904093935 24 325 1.6 3.2 0.00 0.00 0.00 90 1015.0
20260904093826 24 325 1.6 3.2 0.00 0.00 0.00 91 1015.0
20260904093734 24 325 1.6 3.2 0.00 0.00 0.00 91 1014.9
20260904093622 24 325 1.6 3.2 0.00 0.00 0.00 91 1014.9
20260904093529 24 325 1.6 3.2 0.00 0.00 0.00 91 1014.9
20260904093418 25 325 1.6 3.2 0.00 0.00 0.00 91 1014.9
20260904093344 25 325 1.6 3.2 0.00 0.00 0.00 91 1014.9
20260904093319 25 325 1.6 3.2 0.00 0.00 0.00 91 1014.9
20260904093032 25 325 1.6 3.2 0.00 0.00 0.00 91 1014.8
20260904092919 25 325 1.6 3.2 0.00 0.00 0.00 90 1015.0
20260904092847 25 325 1.6 3.2 0.00 0.00 0.00 90 1014.9
20260904092731 25 325 1.6 1.6 0.00 0.00 0.00 90 1014.9
20260904092622 25 325 1.6 1.6 0.00 0.00 0.00 90 1014.9
20260904092550 25 325 0.0 1.6 0.00 0.00 0.00 90 1014.9
20260904092437 25 325 0.0 1.6 0.00 0.00 0.00 91 1014.9
20260904092324 25 325 0.0 1.6 0.00 0.00 0.00 90 1015.0
20260904092251 25 325 0.0 3.2 0.00 0.00 0.00 90 1014.9
20260904092117 25 325 0.0 3.2 0.00 0.00 0.00 90 1014.9
20260904092030 25 325 0.0 3.2 0.00 0.00 0.00 90 1014.9
20260904091917 25 325 0.0 3.2 0.00 0.00 0.00 90 1015.0
20260904091845 25 325 0.0 3.2 0.00 0.00 0.00 90 1015.0
20260904091815 25 325 0.0 3.2 0.00 0.00 0.00 90 1015.0
20260904091529 25 325 0.0 4.8 0.00 0.00 0.00 90 1014.9
20260904091421 25 325 1.6 4.8 0.00 0.00 0.00 90 1014.9
20260904091348 25 325 1.6 4.8 0.00 0.00 0.00 90 1014.8
20260904091235 25 325 1.6 4.8 0.00 0.00 0.00 90 1014.8
20260904091120 25 325 1.6 4.8 0.00 0.00 0.00 90 1014.8
20260904091028 25 10 3.2 4.8 0.00 0.00 0.00 90 1014.8
20260904090936 25 10 3.2 4.8 0.00 0.00 0.00 90 1014.9
20260904090845 25 10 3.2 4.8 0.00 0.00 0.00 90 1014.9
20260904090731 25 10 3.2 4.8 0.00 0.00 0.00 90 1014.8
20260904090618 25 10 3.2 4.8 0.00 0.00 0.00 90 1014.9
20260904090525 25 10 3.2 4.8 0.00 0.00 0.00 89 1014.9
20260904090431 25 10 3.2 4.8 0.00 0.00 0.00 89 1014.8
20260904090318 25 10 3.2 4.8 0.00 0.00 0.00 89 1015.0
20260904090253 25 10 3.2 4.8 0.00 0.00 0.00 89 1015.0
20260904090026 25 10 3.2 4.8 0.00 0.00 0.00 89 1014.9
20260904085933 25 10 3.2 4.8 0.00 0.00 0.00 89 1014.8
20260904085820 25 10 3.2 4.8 0.00 0.00 0.00 89 1014.8
20260904085732 25 10 3.2 4.8 0.00 0.00 0.00 89 1014.8
20260904085618 25 10 3.2 4.8 0.00 0.00 0.00 89 1014.9
20260904085526 25 10 3.2 4.8 0.00 0.00 0.00 89 1014.9
20260904085452 25 10 3.2 4.8 0.00 0.00 0.00 89 1014.8
20260904085317 25 10 3.2 4.8 0.00 0.00 0.00 89 1014.9
20260904085243 25 10 3.2 4.8 0.00 0.00 0.00 89 1014.8
20260904085130 25 5 3.2 4.8 0.00 0.00 0.00 89 1014.9
20260904085042 25 360 4.8 4.8 0.00 0.00 0.00 89 1014.9
20260904084947 25 360 3.2 4.8 0.00 0.00 0.00 89 1014.9
20260904084853 25 355 1.6 4.8 0.00 0.00 0.00 89 1014.9
20260904084801 25 355 0.0 4.8 0.00 0.00 0.00 88 1014.8
20260904084535 25 355 0.0 0.0 0.00 0.00 0.00 88 1014.8
20260904084426 25 342 0.0 0.0 0.00 0.00 0.00 88 1014.8
20260904084333 25 276 0.0 0.0 0.00 0.00 0.00 88 1014.8
20260904084220 25 276 0.0 0.0 0.00 0.00 0.00 88 1014.9
20260904084126 25 276 0.0 0.0 0.00 0.00 0.00 87 1014.8
20260904084033 25 276 0.0 0.0 0.00 0.00 0.00 87 1014.8
20260904083920 25 276 0.0 0.0 0.00 0.00 0.00 87 1014.8
20260904083833 25 276 0.0 0.0 0.00 0.00 0.00 87 1014.8
20260904083719 25 276 0.0 0.0 0.00 0.00 0.00 87 1014.8
20260904083626 25 276 0.0 0.0 0.00 0.00 0.00 87 1014.9
20260904083534 25 276 0.0 0.0 0.00 0.00 0.00 87 1014.8
20260904083422 25 276 0.0 0.0 0.00 0.00 0.00 87 1014.8
20260904083348 25 276 0.0 0.0 0.00 0.00 0.00 87 1014.8
20260904083301 25 276 0.0 0.0 0.00 0.00 0.00 87 1014.8
20260904083033 25 276 0.0 0.0 0.00 0.00 0.00 87 1014.8
20260904082921 25 276 0.0 0.0 0.00 0.00 0.00 86 1014.8
20260904082827 25 276 0.0 0.0 0.00 0.00 0.00 86 1014.8
20260904082754 25 276 0.0 0.0 0.00 0.00 0.00 86 1014.9
20260904082624 25 276 0.0 0.0 0.00 0.00 0.00 86 1014.8
20260904082531 25 276 0.0 0.0 0.00 0.00 0.00 86 1014.8
20260904082418 25 276 0.0 0.0 0.00 0.00 0.00 87 1014.8
20260904082325 25 276 0.0 1.6 0.00 0.00 0.00 87 1014.8
20260904082231 25 276 0.0 1.6 0.00 0.00 0.00 87 1014.8
20260904082123 26 276 0.0 1.6 0.00 0.00 0.00 87 1014.8
20260904082030 26 276 0.0 1.6 0.00 0.00 0.00 87 1014.8
20260904081917 26 276 0.0 1.6 0.00 0.00 0.00 87 1014.8
20260904081844 26 276 0.0 1.6 0.00 0.00 0.00 87 1014.9
20260904081816 26 276 0.0 1.6 0.00 0.00 0.00 87 1014.9
20260904081532 26 276 1.6 1.6 0.00 0.00 0.00 87 1014.9
20260904081439 26 276 1.6 1.6 0.00 0.00 0.00 87 1014.8
20260904081325 26 276 1.6 1.6 0.00 0.00 0.00 87 1014.8
20260904081232 26 276 1.6 1.6 0.00 0.00 0.00 87 1014.8
20260904081120 26 276 0.0 3.2 0.00 0.00 0.00 87 1014.8
20260904081028 26 276 0.0 3.2 0.00 0.00 0.00 87 1014.8
20260904080939 26 276 0.0 3.2 0.00 0.00 0.00 87 1014.7
20260904080824 26 276 0.0 3.2 0.00 0.00 0.00 87 1014.8
20260904080730 26 276 1.6 3.2 0.00 0.00 0.00 87 1014.7
20260904080656 26 276 0.0 3.2 0.00 0.00 0.00 86 1014.8
20260904080522 26 276 0.0 3.2 0.00 0.00 0.00 86 1014.7
20260904080429 26 276 1.6 3.2 0.00 0.00 0.00 86 1014.7
20260904080321 26 276 1.6 3.2 0.00 0.00 0.00 86 1014.7
20260904080251 26 276 3.2 3.2 0.00 0.00 0.00 86 1014.7
20260904080045 26 282 3.2 3.2 0.00 0.00 0.00 86 1014.6
20260904075930 26 279 3.2 3.2 0.00 0.00 0.00 86 1014.7
20260904075835 26 96 1.6 3.2 0.00 0.00 0.00 86 1014.6
20260904075727 26 96 3.2 3.2 0.00 0.00 0.00 86 1014.7
20260904075635 26 96 3.2 3.2 0.00 0.00 0.00 86 1014.7
20260904075521 26 96 1.6 3.2 0.00 0.00 0.00 86 1014.7
20260904075427 26 96 1.6 3.2 0.00 0.00 0.00 86 1014.7
20260904075334 26 96 1.6 3.2 0.00 0.00 0.00 86 1014.7
20260904075241 26 96 3.2 3.2 0.00 0.00 0.00 85 1014.6
20260904075132 26 96 3.2 3.2 0.00 0.00 0.00 85 1014.6
20260904075020 26 96 1.6 3.2 0.00 0.00 0.00 85 1014.6
20260904074928 26 96 1.6 3.2 0.00 0.00 0.00 85 1014.7
20260904074855 26 96 0.0 3.2 0.00 0.00 0.00 85 1014.7
20260904074826 26 96 0.0 0.0 0.00 0.00 0.00 85 1014.6
20260904074523 26 96 0.0 0.0 0.00 0.00 0.00 85 1014.6
20260904074450 26 96 0.0 0.0 0.00 0.00 0.00 85 1014.6
20260904074335 26 96 0.0 0.0 0.00 0.00 0.00 85 1014.6
20260904074221 26 96 0.0 0.0 0.00 0.00 0.00 85 1014.6
20260904074128 26 96 0.0 0.0 0.00 0.00 0.00 85 1014.6
20260904074018 26 96 0.0 0.0 0.00 0.00 0.00 85 1014.6
20260904073926 26 96 0.0 1.6 0.00 0.00 0.00 85 1014.6
20260904073832 26 96 0.0 1.6 0.00 0.00 0.00 84 1014.7
20260904073720 26 96 0.0 1.6 0.00 0.00 0.00 84 1014.7
20260904073626 26 96 0.0 1.6 0.00 0.00 0.00 84 1014.7
20260904073534 26 96 0.0 1.6 0.00 0.00 0.00 84 1014.7
20260904073446 26 96 0.0 1.6 0.00 0.00 0.00 83 1014.7
20260904073331 26 96 0.0 1.6 0.00 0.00 0.00 83 1014.8
20260904073301 26 96 0.0 3.2 0.00 0.00 0.00 84 1014.8
20260904073034 26 96 0.0 3.2 0.00 0.00 0.00 84 1014.7
20260904072920 26 96 0.0 3.2 0.00 0.00 0.00 84 1014.7
20260904072831 26 96 0.0 4.8 0.00 0.00 0.00 84 1014.7
20260904072717 26 96 0.0 4.8 0.00 0.00 0.00 84 1014.7
20260904072645 26 96 0.0 4.8 0.00 0.00 0.00 84 1014.7
20260904072530 26 96 0.0 4.8 0.00 0.00 0.00 84 1014.7
20260904072456 26 96 1.6 4.8 0.00 0.00 0.00 84 1014.7
20260904072321 26 92 1.6 4.8 0.00 0.00 0.00 84 1014.7
20260904072233 26 93 1.6 4.8 0.00 0.00 0.00 84 1014.7
20260904072139 26 63 1.6 4.8 0.00 0.00 0.00 84 1014.7
20260904072025 26 109 1.6 4.8 0.00 0.00 0.00 84 1014.7
20260904071932 26 115 1.6 3.2 0.00 0.00 0.00 83 1014.7
20260904071818 26 155 0.0 3.2 0.00 0.00 0.00 83 1014.7
20260904071753 26 155 0.0 3.2 0.00 0.00 0.00 83 1014.7
20260904071547 26 155 0.0 3.2 0.00 0.00 0.00 83 1014.6
20260904071432 26 155 0.0 3.2 0.00 0.00 0.00 83 1014.6
20260904071319 26 155 0.0 3.2 0.00 0.00 0.00 84 1014.7
20260904071226 26 155 1.6 3.2 0.00 0.00 0.00 84 1014.7
20260904071152 26 155 1.6 3.2 0.00 0.00 0.00 84 1014.6
20260904071017 26 155 1.6 4.8 0.00 0.00 0.00 84 1014.7
20260904070929 26 155 0.0 4.8 0.00 0.00 0.00 84 1014.7
20260904070836 26 155 0.0 4.8 0.00 0.00 0.00 84 1014.7
20260904070723 26 155 0.0 4.8 0.00 0.00 0.00 84 1014.7
20260904070630 26 155 1.6 4.8 0.00 0.00 0.00 84 1014.6
20260904070517 26 155 1.6 4.8 0.00 0.00 0.00 84 1014.7
20260904070424 26 155 3.2 4.8 0.00 0.00 0.00 85 1014.7
20260904070333 26 155 3.2 4.8 0.00 0.00 0.00 85 1014.6
20260904070304 26 153 3.2 4.8 0.00 0.00 0.00 85 1014.6
20260904070039 26 142 3.2 4.8 0.00 0.00 0.00 85 1014.7
20260904065924 26 144 3.2 4.8 0.00 0.00 0.00 85 1014.6
20260904065831 26 141 3.2 4.8 0.00 0.00 0.00 85 1014.7
20260904065723 26 123 3.2 4.8 0.00 0.00 0.00 85 1014.7
20260904065631 26 142 3.2 4.8 0.00 0.00 0.00 85 1014.7
20260904065518 26 147 3.2 4.8 0.00 0.00 0.00 85 1014.8
20260904065426 26 144 3.2 4.8 0.00 0.00 0.00 85 1014.8
20260904065354 26 142 3.2 3.2 0.00 0.00 0.00 85 1014.7
20260904065223 26 129 3.2 3.2 0.00 0.00 0.00 85 1014.8
20260904065129 26 134 3.2 3.2 0.00 0.00 0.00 85 1014.8
20260904065037 26 123 1.6 3.2 0.00 0.00 0.00 85 1014.9
20260904064923 26 84 0.0 3.2 0.00 0.00 0.00 85 1014.8
20260904064851 26 84 1.6 3.2 0.00 0.00 0.00 85 1014.8
20260904064827 26 45 1.6 3.2 0.00 0.00 0.00 85 1014.8
20260904064518 26 45 3.2 3.2 0.00 0.00 0.00 85 1014.8
20260904064425 26 360 3.2 3.2 0.00 0.00 0.00 85 1014.8
20260904064331 26 360 1.6 3.2 0.00 0.00 0.00 85 1014.8
20260904064217 26 360 1.6 3.2 0.00 0.00 0.00 85 1014.8
20260904064125 26 360 1.6 3.2 0.00 0.00 0.00 85 1014.8
20260904064036 26 360 1.6 3.2 0.00 0.00 0.00 85 1014.8
20260904063922 26 360 1.6 3.2 0.00 0.00 0.00 85 1014.8
20260904063829 26 360 1.6 3.2 0.00 0.00 0.00 85 1014.8
20260904063736 26 360 1.6 3.2 0.00 0.00 0.00 85 1014.8
20260904063622 26 360 0.0 1.6 0.00 0.00 0.00 84 1014.7
20260904063529 26 360 0.0 1.6 0.00 0.00 0.00 84 1014.7
20260904063439 26 360 0.0 0.0 0.00 0.00 0.00 84 1014.8
20260904063324 26 360 0.0 0.0 0.00 0.00 0.00 83 1014.8
20260904063254 26 360 0.0 0.0 0.00 0.00 0.00 83 1014.8
20260904063028 26 360 0.0 0.0 0.00 0.00 0.00 83 1014.8
20260904062955 26 360 0.0 0.0 0.00 0.00 0.00 83 1014.8
20260904062825 26 360 0.0 0.0 0.00 0.00 0.00 83 1014.8
20260904062732 26 360 0.0 0.0 0.00 0.00 0.00 83 1014.9
20260904062620 26 360 0.0 0.0 0.00 0.00 0.00 84 1014.8
20260904062528 26 360 0.0 0.0 0.00 0.00 0.00 84 1014.8
20260904062432 26 360 0.0 0.0 0.00 0.00 0.00 84 1014.9
20260904062323 26 360 0.0 0.0 0.00 0.00 0.00 84 1014.9
20260904062229 26 360 0.0 0.0 0.00 0.00 0.00 84 1014.8
20260904062118 26 360 0.0 0.0 0.00 0.00 0.00 83 1014.9
20260904062025 26 360 0.0 0.0 0.00 0.00 0.00 83 1014.9
20260904061951 26 360 0.0 0.0 0.00 0.00 0.00 83 1014.9
20260904061856 26 360 0.0 0.0 0.00 0.00 0.00 83 1014.9
20260904061810 26 360 0.0 0.0 0.00 0.00 0.00 83 1014.9
20260904061523 26 360 0.0 0.0 0.00 0.00 0.00 83 1014.9
20260904061431 26 360 0.0 1.6 0.00 0.00 0.00 84 1015.0
20260904061317 26 360 0.0 1.6 0.00 0.00 0.00 84 1014.9
20260904061223 26 360 0.0 3.2 0.00 0.00 0.00 83 1014.9
20260904061135 26 360 0.0 3.2 0.00 0.00 0.00 83 1015.0
20260904061021 26 360 0.0 3.2 0.00 0.00 0.00 83 1014.9
20260904060949 26 360 0.0 3.2 0.00 0.00 0.00 83 1015.0
20260904060835 26 360 0.0 3.2 0.00 0.00 0.00 83 1014.9
20260904060723 26 360 0.0 3.2 0.00 0.00 0.00 83 1014.9
20260904060650 26 360 0.0 3.2 0.00 0.00 0.00 83 1014.9
20260904060555 26 360 1.6 3.2 0.00 0.00 0.00 83 1014.9
20260904060444 26 360 1.6 3.2 0.00 0.00 0.00 82 1015.0
20260904060301 26 360 3.2 3.2 0.00 0.00 0.00 83 1014.9
20260904060034 26 360 1.6 3.2 0.00 0.00 0.00 83 1014.9
20260904055921 26 360 1.6 3.2 0.00 0.00 0.00 83 1015.0
20260904055832 26 360 0.0 3.2 0.00 0.00 0.00 83 1014.9
20260904055719 26 360 0.0 3.2 0.00 0.00 0.00 84 1014.9
20260904055628 26 360 0.0 3.2 0.00 0.00 0.00 84 1014.9
20260904055534 26 360 0.0 3.2 0.00 0.00 0.00 84 1015.0
20260904055421 26 360 0.0 3.2 0.00 0.00 0.00 84 1015.0
20260904055331 26 360 0.0 3.2 0.00 0.00 0.00 84 1015.0
20260904055217 26 360 0.0 3.2 0.00 0.00 0.00 84 1015.0
20260904055124 26 360 1.6 3.2 0.00 0.00 0.00 84 1015.0
20260904055032 26 360 1.6 3.2 0.00 0.00 0.00 84 1015.0
20260904054939 26 360 3.2 3.2 0.00 0.00 0.00 84 1014.9
20260904054825 26 360 1.6 3.2 0.00 0.00 0.00 84 1015.0
20260904054759 26 360 1.6 3.2 0.00 0.00 0.00 84 1015.0
20260904054534 26 360 0.0 3.2 0.00 0.00 0.00 84 1014.9
20260904054420 26 360 0.0 0.0 0.00 0.00 0.00 84 1014.9
20260904054327 26 360 0.0 1.6 0.00 0.00 0.00 84 1015.0
20260904054217 26 360 0.0 1.6 0.00 0.00 0.00 84 1014.9
20260904054124 26 360 0.0 1.6 0.00 0.00 0.00 84 1015.0
20260904054052 26 360 0.0 3.2 0.00 0.00 0.00 84 1015.0
20260904053919 26 360 0.0 3.2 0.00 0.00 0.00 84 1014.9
20260904053827 26 360 0.0 3.2 0.00 0.00 0.00 84 1015.0
20260904053754 26 360 0.0 3.2 0.00 0.00 0.00 84 1015.0
20260904053618 26 360 0.0 3.2 0.00 0.00 0.00 84 1015.0
20260904053546 26 360 0.0 3.2 0.00 0.00 0.00 83 1015.0
20260904053433 26 360 1.6 3.2 0.00 0.00 0.00 83 1015.0
20260904053340 26 360 1.6 3.2 0.00 0.00 0.00 83 1015.1
20260904053310 26 360 1.6 3.2 0.00 0.00 0.00 83 1015.1
20260904053022 26 360 1.6 3.2 0.00 0.00 0.00 83 1015.1
20260904052929 26 360 0.0 3.2 0.00 0.00 0.00 83 1015.1
20260904052820 26 360 0.0 3.2 0.00 0.00 0.00 83 1015.0
20260904052746 26 360 0.0 1.6 0.00 0.00 0.00 83 1015.0
20260904052632 26 360 0.0 0.0 0.00 0.00 0.00 82 1015.1
20260904052519 26 360 0.0 1.6 0.00 0.00 0.00 82 1015.1
20260904052427 26 360 0.0 1.6 0.00 0.00 0.00 82 1015.1
20260904052318 26 360 0.0 1.6 0.00 0.00 0.00 82 1015.1
20260904052225 27 360 0.0 1.6 0.00 0.00 0.00 82 1015.1
20260904052152 27 360 0.0 3.2 0.00 0.00 0.00 82 1015.1
20260904052036 27 360 0.0 3.2 0.00 0.00 0.00 82 1015.1
20260904051943 27 360 0.0 3.2 0.00 0.00 0.00 81 1015.1
20260904051850 27 360 0.0 3.2 0.00 0.00 0.00 81 1015.1
20260904051804 27 360 0.0 3.2 0.00 0.00 0.00 81 1015.1
20260904051537 27 360 0.0 3.2 0.00 0.00 0.00 81 1015.0
20260904051442 27 360 1.6 3.2 0.00 0.00 0.00 82 1015.0
20260904051328 27 360 1.6 3.2 0.00 0.00 0.00 82 1015.0
20260904051236 27 360 1.6 3.2 0.00 0.00 0.00 82 1015.0
20260904051143 27 360 1.6 3.2 0.00 0.00 0.00 81 1015.0
20260904051028 27 360 1.6 3.2 0.00 0.00 0.00 81 1015.1
20260904050919 27 360 1.6 3.2 0.00 0.00 0.00 82 1015.0
20260904050826 27 360 1.6 3.2 0.00 0.00 0.00 81 1015.1
20260904050733 27 360 1.6 3.2 0.00 0.00 0.00 80 1015.1
20260904050620 27 360 1.6 3.2 0.00 0.00 0.00 80 1015.2
20260904050547 27 360 1.6 3.2 0.00 0.00 0.00 81 1015.1
20260904050430 27 360 0.0 3.2 0.00 0.00 0.00 81 1015.1
20260904050342 27 360 1.6 3.2 0.00 0.00 0.00 81 1015.2
20260904050251 27 360 1.6 3.2 0.00 0.00 0.00 82 1015.1
20260904050024 27 360 1.6 3.2 0.00 0.00 0.00 82 1015.2
20260904045933 27 360 1.6 3.2 0.00 0.00 0.00 82 1015.2
20260904045819 27 360 0.0 1.6 0.00 0.00 0.00 82 1015.2
20260904045728 27 360 0.0 1.6 0.00 0.00 0.00 81 1015.2
20260904045636 27 360 0.0 0.0 0.00 0.00 0.00 81 1015.2
20260904045522 27 360 0.0 0.0 0.00 0.00 0.00 81 1015.2
20260904045430 27 360 0.0 0.0 0.00 0.00 0.00 81 1015.2
20260904045357 27 360 0.0 1.6 0.00 0.00 0.00 80 1015.2
20260904045225 27 360 0.0 1.6 0.00 0.00 0.00 79 1015.1
20260904045136 27 360 0.0 1.6 0.00 0.00 0.00 78 1015.1
20260904045041 27 360 0.0 1.6 0.00 0.00 0.00 79 1015.1
20260904044926 27 360 0.0 1.6 0.00 0.00 0.00 79 1015.2
20260904044804 27 360 0.0 1.6 0.00 0.00 0.00 79 1015.2
20260904044520 27 360 0.0 3.2 0.00 0.00 0.00 78 1015.2
20260904044427 27 360 1.6 3.2 0.00 0.00 0.00 78 1015.2
20260904044333 27 360 1.6 3.2 0.00 0.00 0.00 78 1015.2
20260904044218 27 360 1.6 3.2 0.00 0.00 0.00 78 1015.1
20260904044124 27 360 1.6 3.2 0.00 0.00 0.00 78 1015.1
20260904044036 27 360 1.6 3.2 0.00 0.00 0.00 78 1015.2
20260904043922 27 360 0.0 3.2 0.00 0.00 0.00 78 1015.2
20260904043828 27 360 0.0 3.2 0.00 0.00 0.00 78 1015.2
20260904043756 27 360 1.6 3.2 0.00 0.00 0.00 78 1015.2
20260904043622 27 360 1.6 3.2 0.00 0.00 0.00 78 1015.1
20260904043526 27 360 1.6 3.2 0.00 0.00 0.00 78 1015.1
20260904043435 27 360 0.0 3.2 0.00 0.00 0.00 78 1015.1
20260904043323 27 360 0.0 3.2 0.00 0.00 0.00 78 1015.1
20260904043253 27 360 0.0 3.2 0.00 0.00 0.00 78 1015.1
20260904043046 27 360 0.0 3.2 0.00 0.00 0.00 77 1015.2
20260904042952 27 360 0.0 3.2 0.00 0.00 0.00 77 1015.2
20260904042824 27 360 0.0 3.2 0.00 0.00 0.00 77 1015.2
20260904042729 27 360 0.0 3.2 0.00 0.00 0.00 77 1015.1
20260904042635 27 360 1.6 3.2 0.00 0.00 0.00 77 1015.2
20260904042523 27 360 1.6 3.2 0.00 0.00 0.00 77 1015.3
20260904042452 27 360 1.6 3.2 0.00 0.00 0.00 77 1015.2
20260904042317 27 360 1.6 3.2 0.00 0.00 0.00 77 1015.3
20260904042228 27 360 1.6 3.2 0.00 0.00 0.00 77 1015.2
20260904042156 27 360 1.6 3.2 0.00 0.00 0.00 76 1015.2
20260904042020 27 13 1.6 3.2 0.00 0.00 0.00 76 1015.3
20260904041927 27 13 1.6 3.2 0.00 0.00 0.00 76 1015.3
20260904041835 27 13 1.6 3.2 0.00 0.00 0.00 76 1015.3
20260904041804 27 13 1.6 3.2 0.00 0.00 0.00 76 1015.3
20260904041522 28 13 0.0 1.6 0.00 0.00 0.00 76 1015.2
20260904041429 28 13 0.0 1.6 0.00 0.00 0.00 76 1015.2
20260904041336 28 13 0.0 1.6 0.00 0.00 0.00 76 1015.2
20260904041243 28 13 0.0 1.6 0.00 0.00 0.00 76 1015.2
20260904041129 28 13 0.0 1.6 0.00 0.00 0.00 76 1015.2
20260904041019 28 13 1.6 1.6 0.00 0.00 0.00 76 1015.2
20260904040925 28 13 0.0 1.6 0.00 0.00 0.00 76 1015.2
20260904040832 28 13 0.0 1.6 0.00 0.00 0.00 77 1015.3
20260904040719 28 13 0.0 1.6 0.00 0.00 0.00 76 1015.3
20260904040625 28 13 0.0 1.6 0.00 0.00 0.00 76 1015.3
20260904040531 28 13 0.0 1.6 0.00 0.00 0.00 76 1015.3
20260904040421 28 13 0.0 1.6 0.00 0.00 0.00 76 1015.2
20260904040348 28 13 0.0 1.6 0.00 0.00 0.00 76 1015.2
20260904040318 28 13 0.0 1.6 0.00 0.00 0.00 75 1015.2
20260904040032 28 13 0.0 1.6 0.00 0.00 0.00 76 1015.3
20260904035958 28 13 0.0 1.6 0.00 0.00 0.00 76 1015.3
20260904035823 28 13 0.0 1.6 0.00 0.00 0.00 76 1015.3
20260904035754 28 13 0.0 3.2 0.00 0.00 0.00 76 1015.3
20260904035639 28 13 1.6 3.2 0.00 0.00 0.00 76 1015.3
20260904035543 28 13 0.0 3.2 0.00 0.00 0.00 76 1015.3
20260904035428 28 13 0.0 3.2 0.00 0.00 0.00 76 1015.3
20260904035335 28 16 0.0 3.2 0.00 0.00 0.00 76 1015.3
20260904035222 28 27 0.0 3.2 0.00 0.00 0.00 76 1015.3
20260904035128 28 125 0.0 3.2 0.00 0.00 0.00 76 1015.3
20260904035018 28 125 0.0 3.2 0.00 0.00 0.00 75 1015.3
20260904034925 28 125 0.0 3.2 0.00 0.00 0.00 75 1015.4
20260904034833 28 125 0.0 1.6 0.00 0.00 0.00 74 1015.4
20260904034802 28 125 0.0 1.6 0.00 0.00 0.00 74 1015.4
20260904034519 28 125 0.0 1.6 0.00 0.00 0.00 74 1015.3
20260904034426 29 125 0.0 1.6 0.00 0.00 0.00 74 1015.4
20260904034333 29 125 0.0 1.6 0.00 0.00 0.00 74 1015.4
20260904034221 29 125 0.0 1.6 0.00 0.00 0.00 73 1015.4
20260904034129 29 125 0.0 1.6 0.00 0.00 0.00 73 1015.5
20260904034019 29 125 0.0 1.6 0.00 0.00 0.00 72 1015.5
20260904033925 29 125 0.0 1.6 0.00 0.00 0.00 72 1015.5
20260904033833 29 125 0.0 1.6 0.00 0.00 0.00 72 1015.5
20260904033721 29 125 0.0 1.6 0.00 0.00 0.00 71 1015.4
20260904033648 29 125 0.0 1.6 0.00 0.00 0.00 71 1015.5
20260904033534 29 125 0.0 0.0 0.00 0.00 0.00 72 1015.5
20260904033442 29 125 0.0 0.0 0.00 0.00 0.00 72 1015.5
20260904033353 29 125 0.0 0.0 0.00 0.00 0.00 73 1015.4
20260904033303 29 125 0.0 0.0 0.00 0.00 0.00 73 1015.4
20260904033035 29 125 0.0 0.0 0.00 0.00 0.00 72 1015.5
20260904032922 29 125 0.0 0.0 0.00 0.00 0.00 72 1015.5
20260904032848 29 125 0.0 0.0 0.00 0.00 0.00 72 1015.5
20260904032717 29 125 0.0 3.2 0.00 0.00 0.00 72 1015.5
20260904032644 29 125 0.0 3.2 0.00 0.00 0.00 72 1015.6
20260904032531 29 125 0.0 3.2 0.00 0.00 0.00 72 1015.6
20260904032438 29 125 0.0 3.2 0.00 0.00 0.00 71 1015.5
20260904032325 29 125 0.0 3.2 0.00 0.00 0.00 70 1015.5
20260904032232 30 125 0.0 3.2 0.00 0.00 0.00 70 1015.5
20260904032123 30 126 0.0 3.2 0.00 0.00 0.00 70 1015.5
20260904032029 30 125 0.0 3.2 0.00 0.00 0.00 70 1015.5
20260904031917 30 125 1.6 3.2 0.00 0.00 0.00 70 1015.5
20260904031824 30 125 1.6 3.2 0.00 0.00 0.00 70 1015.6
20260904031753 29 125 1.6 3.2 0.00 0.00 0.00 70 1015.6
20260904031531 30 125 1.6 3.2 0.00 0.00 0.00 70 1015.6
20260904031417 30 125 1.6 3.2 0.00 0.00 0.00 70 1015.4
20260904031345 30 125 1.6 3.2 0.00 0.00 0.00 70 1015.5
20260904031230 30 125 1.6 3.2 0.00 0.00 0.00 71 1015.6
20260904031117 30 125 1.6 3.2 0.00 0.00 0.00 70 1015.5
20260904031044 30 125 1.6 3.2 0.00 0.00 0.00 71 1015.5
20260904030932 30 125 1.6 3.2 0.00 0.00 0.00 70 1015.6
20260904030821 30 125 1.6 3.2 0.00 0.00 0.00 70 1015.6
20260904030749 30 125 1.6 3.2 0.00 0.00 0.00 70 1015.5
20260904030655 30 125 1.6 4.8 0.00 0.00 0.00 70 1015.6
20260904030521 30 125 1.6 4.8 0.00 0.00 0.00 71 1015.6
20260904030428 30 125 1.6 4.8 0.00 0.00 0.00 71 1015.6
20260904030334 30 125 1.6 4.8 0.00 0.00 0.00 70 1015.6
20260904030308 30 125 1.6 4.8 0.00 0.00 0.00 71 1015.6
20260904030020 30 103 3.2 4.8 0.00 0.00 0.00 70 1015.7
20260904025927 30 120 3.2 4.8 0.00 0.00 0.00 70 1015.6
20260904025834 30 120 3.2 4.8 0.00 0.00 0.00 71 1015.5
20260904025724 30 114 3.2 4.8 0.00 0.00 0.00 71 1015.6
20260904025631 30 114 3.2 4.8 0.00 0.00 0.00 70 1015.6
20260904025536 30 114 1.6 4.8 0.00 0.00 0.00 71 1015.5
20260904025422 30 111 1.6 4.8 0.00 0.00 0.00 70 1015.6
20260904025329 30 107 1.6 4.8 0.00 0.00 0.00 71 1015.5
20260904025218 30 97 3.2 4.8 0.00 0.00 0.00 71 1015.5
20260904025148 30 109 3.2 4.8 0.00 0.00 0.00 70 1015.5
20260904025033 30 94 3.2 4.8 0.00 0.00 0.00 70 1015.5
20260904024918 30 110 1.6 4.8 0.00 0.00 0.00 71 1015.6
20260904024826 30 112 1.6 4.8 0.00 0.00 0.00 70 1015.5
20260904024757 30 90 1.6 4.8 0.00 0.00 0.00 70 1015.5
20260904024533 30 92 1.6 4.8 0.00 0.00 0.00 71 1015.6
20260904024420 30 102 3.2 4.8 0.00 0.00 0.00 71 1015.5
20260904024327 30 94 3.2 4.8 0.00 0.00 0.00 71 1015.6
20260904024253 30 82 3.2 4.8 0.00 0.00 0.00 71 1015.5
20260904024118 30 120 3.2 4.8 0.00 0.00 0.00 71 1015.6
20260904024025 30 113 1.6 3.2 0.00 0.00 0.00 71 1015.5
20260904023934 30 119 1.6 3.2 0.00 0.00 0.00 71 1015.5
20260904023820 30 119 1.6 3.2 0.00 0.00 0.00 71 1015.5
20260904023725 30 103 1.6 3.2 0.00 0.00 0.00 70 1015.6
20260904023632 30 103 1.6 3.2 0.00 0.00 0.00 70 1015.6
20260904023540 30 98 0.0 3.2 0.00 0.00 0.00 69 1015.5
20260904023445 30 98 0.0 4.8 0.00 0.00 0.00 70 1015.6
20260904023412 30 98 1.6 4.8 0.00 0.00 0.00 70 1015.5
20260904023325 30 98 1.6 4.8 0.00 0.00 0.00 70 1015.5
20260904023036 30 105 1.6 4.8 0.00 0.00 0.00 70 1015.5
20260904022922 30 119 1.6 6.4 0.00 0.00 0.00 70 1015.5
20260904022829 30 96 1.6 6.4 0.00 0.00 0.00 70 1015.5
20260904022719 30 78 3.2 6.4 0.00 0.00 0.00 69 1015.5
20260904022627 30 93 3.2 6.4 0.00 0.00 0.00 69 1015.5
20260904022534 30 111 3.2 6.4 0.00 0.00 0.00 69 1015.5
20260904022420 31 101 3.2 6.4 0.00 0.00 0.00 69 1015.5
20260904022327 31 101 3.2 6.4 0.00 0.00 0.00 69 1015.5
20260904022235 31 113 4.8 6.4 0.00 0.00 0.00 69 1015.4
20260904022127 31 103 3.2 6.4 0.00 0.00 0.00 69 1015.5
20260904022034 31 103 3.2 6.4 0.00 0.00 0.00 69 1015.5
20260904021939 31 102 3.2 6.4 0.00 0.00 0.00 69 1015.4
20260904021824 31 107 3.2 6.4 0.00 0.00 0.00 69 1015.4
20260904021756 31 106 3.2 6.4 0.00 0.00 0.00 68 1015.4
20260904021552 31 105 3.2 6.4 0.00 0.00 0.00 68 1015.3
20260904021419 31 92 4.8 6.4 0.00 0.00 0.00 67 1015.3
20260904021326 31 111 4.8 6.4 0.00 0.00 0.00 68 1015.3
20260904021234 31 115 4.8 6.4 0.00 0.00 0.00 67 1015.3
20260904021140 31 128 4.8 6.4 0.00 0.00 0.00 68 1015.3
20260904021025 31 144 4.8 6.4 0.00 0.00 0.00 68 1015.2
20260904020936 31 152 3.2 6.4 0.00 0.00 0.00 68 1015.2
20260904020823 31 157 3.2 6.4 0.00 0.00 0.00 68 1015.3
20260904020731 31 153 3.2 6.4 0.00 0.00 0.00 68 1015.3
20260904020617 31 126 3.2 8.0 0.00 0.00 0.00 68 1015.3
20260904020525 31 132 3.2 8.0 0.00 0.00 0.00 68 1015.3
20260904020432 31 146 3.2 8.0 0.00 0.00 0.00 68 1015.3
20260904020344 31 146 3.2 8.0 0.00 0.00 0.00 68 1015.3
20260904020313 31 139 3.2 4.8 0.00 0.00 0.00 68 1015.3
20260904020046 31 137 3.2 4.8 0.00 0.00 0.00 68 1015.3
20260904015930 31 153 3.2 4.8 0.00 0.00 0.00 68 1015.3
20260904015817 31 115 3.2 4.8 0.00 0.00 0.00 68 1015.3
20260904015729 31 122 3.2 4.8 0.00 0.00 0.00 68 1015.2
20260904015657 31 115 1.6 4.8 0.00 0.00 0.00 67 1015.2
20260904015543 31 146 1.6 4.8 0.00 0.00 0.00 68 1015.3
20260904015429 31 146 3.2 4.8 0.00 0.00 0.00 68 1015.2
20260904015334 31 146 3.2 4.8 0.00 0.00 0.00 67 1015.1
20260904015223 31 146 1.6 4.8 0.00 0.00 0.00 67 1015.2
20260904015128 31 146 1.6 4.8 0.00 0.00 0.00 68 1015.2
20260904015019 31 146 3.2 4.8 0.00 0.00 0.00 68 1015.2
20260904014927 31 157 3.2 4.8 0.00 0.00 0.00 68 1015.2
20260904014833 31 153 3.2 4.8 0.00 0.00 0.00 68 1015.1
20260904014804 31 175 3.2 4.8 0.00 0.00 0.00 68 1015.1
20260904014520 31 134 1.6 4.8 0.00 0.00 0.00 68 1015.1
20260904014427 31 192 1.6 8.0 0.00 0.00 0.00 68 1015.2
20260904014333 31 196 3.2 8.0 0.00 0.00 0.00 68 1015.1
20260904014220 31 217 1.6 8.0 0.00 0.00 0.00 68 1015.1
20260904014127 31 230 1.6 8.0 0.00 0.00 0.00 68 1015.1
20260904014019 31 189 3.2 8.0 0.00 0.00 0.00 68 1015.1
20260904013926 31 192 3.2 8.0 0.00 0.00 0.00 68 1015.0
20260904013832 31 198 1.6 8.0 0.00 0.00 0.00 67 1015.1
20260904013718 31 163 3.2 8.0 0.00 0.00 0.00 67 1015.1
20260904013625 31 163 3.2 8.0 0.00 0.00 0.00 68 1015.0
20260904013530 31 149 4.8 8.0 0.00 0.00 0.00 68 1015.1
20260904013443 31 142 3.2 6.4 0.00 0.00 0.00 68 1015.1
20260904013329 31 123 3.2 6.4 0.00 0.00 0.00 67 1015.0
20260904013259 31 130 1.6 6.4 0.00 0.00 0.00 67 1015.0
20260904013032 31 157 3.2 6.4 0.00 0.00 0.00 67 1015.0
20260904012918 31 219 3.2 6.4 0.00 0.00 0.00 67 1015.0
20260904012829 31 196 3.2 6.4 0.00 0.00 0.00 67 1015.0
20260904012737 31 151 3.2 6.4 0.00 0.00 0.00 67 1015.0
20260904012624 31 116 4.8 6.4 0.00 0.00 0.00 67 1014.9
20260904012532 31 144 4.8 6.4 0.00 0.00 0.00 67 1014.9
20260904012418 31 143 3.2 8.0 0.00 0.00 0.00 67 1014.9
20260904012330 31 180 3.2 8.0 0.00 0.00 0.00 67 1014.9
20260904012217 31 173 4.8 11.3 0.00 0.00 0.00 67 1014.9
20260904012144 31 123 4.8 11.3 0.00 0.00 0.00 67 1014.9
20260904012030 31 134 3.2 11.3 0.00 0.00 0.00 67 1014.9
20260904011936 31 134 3.2 11.3 0.00 0.00 0.00 67 1014.9
20260904011842 31 123 4.8 11.3 0.00 0.00 0.00 67 1015.0
20260904011755 31 129 4.8 11.3 0.00 0.00 0.00 67 1015.0
20260904011548 31 141 6.4 11.3 0.00 0.00 0.00 67 1014.8
20260904011434 31 115 6.4 11.3 0.00 0.00 0.00 67 1014.9
20260904011321 31 142 4.8 11.3 0.00 0.00 0.00 67 1014.9
20260904011228 31 185 4.8 8.0 0.00 0.00 0.00 67 1015.0
20260904011119 31 161 4.8 8.0 0.00 0.00 0.00 67 1014.9
20260904011025 31 176 4.8 8.0 0.00 0.00 0.00 67 1014.9
20260904010931 31 165 3.2 8.0 0.00 0.00 0.00 68 1014.8
20260904010838 31 148 3.2 8.0 0.00 0.00 0.00 67 1015.0
20260904010723 31 133 3.2 8.0 0.00 0.00 0.00 67 1014.8
20260904010632 31 111 3.2 8.0 0.00 0.00 0.00 67 1014.8
20260904010523 31 126 3.2 8.0 0.00 0.00 0.00 67 1014.7
20260904010430 31 78 3.2 8.0 0.00 0.00 0.00 67 1014.8
20260904010337 31 120 3.2 8.0 0.00 0.00 0.00 67 1014.8
20260904010309 31 115 3.2 8.0 0.00 0.00 0.00 67 1014.8
20260904010024 31 58 3.2 8.0 0.00 0.00 0.00 68 1014.7
20260904005935 31 89 3.2 8.0 0.00 0.00 0.00 67 1014.6
20260904005822 31 149 4.8 8.0 0.00 0.00 0.00 67 1014.6
20260904005730 31 142 4.8 8.0 0.00 0.00 0.00 67 1014.6
20260904005617 31 140 4.8 8.0 0.00 0.00 0.00 67 1014.6
20260904005523 31 138 4.8 6.4 0.00 0.00 0.00 67 1014.6
20260904005436 31 134 4.8 6.4 0.00 0.00 0.00 67 1014.5
20260904005324 31 126 4.8 6.4 0.00 0.00 0.00 67 1014.6
20260904005232 31 130 1.6 4.8 0.00 0.00 0.00 66 1014.6
20260904005118 31 80 0.0 3.2 0.00 0.00 0.00 66 1014.6
20260904005027 31 24 0.0 3.2 0.00 0.00 0.00 66 1014.5
20260904004917 31 24 0.0 4.8 0.00 0.00 0.00 66 1014.5
20260904004824 31 24 0.0 4.8 0.00 0.00 0.00 66 1014.4
20260904004756 31 24 0.0 4.8 0.00 0.00 0.00 66 1014.4
20260904004528 32 24 1.6 4.8 0.00 0.00 0.00 65 1014.4
20260904004456 32 24 3.2 4.8 0.00 0.00 0.00 65 1014.5
20260904004324 32 24 3.2 4.8 0.00 0.00 0.00 64 1014.5
20260904004232 32 24 3.2 4.8 0.00 0.00 0.00 64 1014.5
20260904004120 32 5 3.2 4.8 0.00 0.00 0.00 63 1014.4
20260904004027 32 5 3.2 3.2 0.00 0.00 0.00 63 1014.5
20260904003933 32 5 1.6 3.2 0.00 0.00 0.00 64 1014.4
20260904003821 32 5 1.6 3.2 0.00 0.00 0.00 65 1014.5
20260904003752 32 5 1.6 1.6 0.00 0.00 0.00 64 1014.4
20260904003618 32 5 1.6 1.6 0.00 0.00 0.00 64 1014.4
20260904003525 32 5 0.0 3.2 0.00 0.00 0.00 64 1014.4
20260904003433 32 5 0.0 3.2 0.00 0.00 0.00 63 1014.4
20260904003341 32 5 0.0 3.2 0.00 0.00 0.00 63 1014.4
20260904003255 32 5 0.0 3.2 0.00 0.00 0.00 63 1014.4
20260904003026 32 5 0.0 3.2 0.00 0.00 0.00 63 1014.3
20260904002955 32 5 0.0 3.2 0.00 0.00 0.00 63 1014.4
20260904002822 32 5 1.6 3.2 0.00 0.00 0.00 64 1014.4
20260904002728 32 5 1.6 3.2 0.00 0.00 0.00 64 1014.4
20260904002634 32 5 1.6 1.6 0.00 0.00 0.00 64 1014.3
20260904002525 32 5 0.0 3.2 0.00 0.00 0.00 64 1014.4
20260904002452 32 5 0.0 3.2 0.00 0.00 0.00 63 1014.3
20260904002318 32 5 0.0 4.8 0.00 0.00 0.00 61 1014.3
20260904002226 33 5 0.0 4.8 0.00 0.00 0.00 62 1014.3
20260904002132 33 5 0.0 4.8 0.00 0.00 0.00 62 1014.2
20260904002019 33 5 0.0 4.8 0.00 0.00 0.00 62 1014.2
20260904001930 33 5 1.6 4.8 0.00 0.00 0.00 62 1014.2
20260904001837 33 5 1.6 4.8 0.00 0.00 0.00 62 1014.1
20260904001808 33 5 3.2 4.8 0.00 0.00 0.00 59 1014.1
20260904001520 33 5 3.2 4.8 0.00 0.00 0.00 60 1014.2
20260904001430 33 5 3.2 4.8 0.00 0.00 0.00 61 1014.1
20260904001336 33 19 3.2 4.8 0.00 0.00 0.00 61 1014.2
20260904001223 33 36 1.6 3.2 0.00 0.00 0.00 60 1014.2
20260904001130 33 36 1.6 3.2 0.00 0.00 0.00 60 1014.3
20260904001057 33 36 1.6 3.2 0.00 0.00 0.00 59 1014.3
20260904000924 33 36 1.6 4.8 0.00 0.00 0.00 59 1014.3
20260904000836 33 36 1.6 4.8 0.00 0.00 0.00 59 1014.3
20260904000724 33 36 1.6 4.8 0.00 0.00 0.00 58 1014.2
20260904000631 33 36 3.2 4.8 0.00 0.00 0.00 58 1014.2
20260904000538 33 36 3.2 4.8 0.00 0.00 0.00 57 1014.2
20260904000422 33 36 1.6 4.8 0.00 0.00 0.00 58 1014.5
20260904000329 33 36 3.2 6.4 0.00 0.00 0.00 58 1014.0
20260904000303 33 36 3.2 6.4 0.00 0.00 0.00 57 1014.0
20260904000036 33 43 3.2 6.4 0.00 0.00 0.00 57 1014.1
20260903235923 33 43 3.2 6.4 0.00 0.00 0.00 57 1014.1
20260903235831 33 43 3.2 6.4 0.00 0.00 0.00 57 1014.1
20260903235742 33 41 1.6 6.4 0.00 0.00 0.00 57 1014.1
20260903235627 33 79 1.6 6.4 0.00 0.00 0.00 57 1014.1
20260903235533 33 100 3.2 6.4 0.00 0.00 0.00 58 1014.1
20260903235421 34 87 3.2 6.4 0.00 0.00 0.00 57 1014.1
20260903235327 34 134 3.2 4.8 0.00 0.00 0.00 56 1014.1
20260903235235 34 127 1.6 4.8 0.00 0.00 0.00 56 1014.1
20260903235125 34 128 1.6 4.8 0.00 0.00 0.00 57 1014.1
20260903235032 34 125 3.2 4.8 0.00 0.00 0.00 56 1014.1
20260903234920 34 111 1.6 4.8 0.00 0.00 0.00 56 1014.1
20260903234827 34 67 1.6 4.8 0.00 0.00 0.00 55 1014.1
20260903234802 34 69 1.6 4.8 0.00 0.00 0.00 55 1014.1
20260903234535 34 84 1.6 4.8 0.00 0.00 0.00 55 1014.0
20260903234420 34 115 1.6 3.2 0.00 0.00 0.00 55 1014.0
20260903234328 34 59 1.6 3.2 0.00 0.00 0.00 55 1014.0
20260903234235 34 58 1.6 3.2 0.00 0.00 0.00 54 1014.0
20260903234142 35 355 1.6 3.2 0.00 0.00 0.00 55 1014.0
20260903234032 35 355 0.0 3.2 0.00 0.00 0.00 54 1013.9
20260903233938 35 286 0.0 3.2 0.00 0.00 0.00 54 1014.0
20260903233824 35 286 0.0 3.2 0.00 0.00 0.00 54 1014.0
20260903233729 35 286 0.0 3.2 0.00 0.00 0.00 54 1014.0
20260903233617 35 286 0.0 3.2 0.00 0.00 0.00 54 1014.0
20260903233525 35 286 1.6 3.2 0.00 0.00 0.00 55 1014.0
20260903233437 35 286 1.6 3.2 0.00 0.00 0.00 55 1014.0
20260903233405 35 286 1.6 3.2 0.00 0.00 0.00 55 1014.0
20260903233253 35 286 1.6 4.8 0.00 0.00 0.00 54 1014.0
20260903233026 35 270 1.6 4.8 0.00 0.00 0.00 54 1014.0
20260903232932 35 270 1.6 4.8 0.00 0.00 0.00 54 1013.9
20260903232838 35 270 1.6 6.4 0.00 0.00 0.00 54 1014.0
20260903232729 35 270 0.0 6.4 0.00 0.00 0.00 55 1014.0
20260903232635 35 270 1.6 6.4 0.00 0.00 0.00 55 1014.1
20260903232521 35 270 1.6 6.4 0.00 0.00 0.00 55 1014.0
20260903232449 35 270 3.2 6.4 0.00 0.00 0.00 55 1014.0
20260903232335 35 269 3.2 6.4 0.00 0.00 0.00 55 1014.0
20260903232241 35 279 3.2 6.4 0.00 0.00 0.00 56 1014.1
20260903232131 35 281 3.2 6.4 0.00 0.00 0.00 55 1014.0
20260903232018 35 294 3.2 6.4 0.00 0.00 0.00 51 1014.0
20260903231925 35 188 4.8 6.4 0.00 0.00 0.00 50 1014.0
20260903231831 35 224 3.2 6.4 0.00 0.00 0.00 51 1014.0
20260903231802 35 215 3.2 6.4 0.00 0.00 0.00 51 1014.0
20260903231520 35 217 1.6 3.2 0.00 0.00 0.00 50 1014.0
20260903231426 35 216 1.6 3.2 0.00 0.00 0.00 50 1014.1
20260903231334 35 179 1.6 3.2 0.00 0.00 0.00 51 1014.0
20260903231221 35 36 1.6 3.2 0.00 0.00 0.00 50 1014.1
20260903231127 35 36 1.6 3.2 0.00 0.00 0.00 50 1014.0
20260903231019 35 59 0.0 3.2 0.00 0.00 0.00 50 1014.0
20260903230945 35 121 0.0 4.8 0.00 0.00 0.00 50 1014.0
20260903230831 35 121 0.0 4.8 0.00 0.00 0.00 50 1014.0
20260903230738 35 121 0.0 4.8 0.00 0.00 0.00 49 1013.9
20260903230624 35 121 0.0 4.8 0.00 0.00 0.00 49 1014.0
20260903230530 35 121 0.0 4.8 0.00 0.00 0.00 49 1014.0
20260903230456 35 121 0.0 4.8 0.00 0.00 0.00 49 1014.0
20260903230327 35 121 1.6 4.8 0.00 0.00 0.00 49 1013.9
20260903230257 35 121 3.2 6.4 0.00 0.00 0.00 50 1013.9
20260903230030 35 121 1.6 6.4 0.00 0.00 0.00 50 1014.0
20260903225937 35 105 1.6 6.4 0.00 0.00 0.00 50 1014.0
20260903225826 36 105 3.2 6.4 0.00 0.00 0.00 49 1014.1
20260903225732 36 134 3.2 6.4 0.00 0.00 0.00 49 1014.1
20260903225619 36 120 3.2 6.4 0.00 0.00 0.00 50 1014.0
20260903225528 36 149 3.2 6.4 0.00 0.00 0.00 49 1014.0
20260903225454 36 111 3.2 6.4 0.00 0.00 0.00 49 1014.0
20260903225320 36 117 3.2 6.4 0.00 0.00 0.00 49 1014.1
20260903225248 36 115 3.2 6.4 0.00 0.00 0.00 48 1014.0
20260903225137 36 115 3.2 6.4 0.00 0.00 0.00 49 1014.0
20260903225022 36 142 1.6 6.4 0.00 0.00 0.00 49 1014.0
20260903224930 36 119 3.2 6.4 0.00 0.00 0.00 50 1014.0
20260903224817 36 132 3.2 6.4 0.00 0.00 0.00 49 1014.0
20260903224752 36 84 4.8 6.4 0.00 0.00 0.00 49 1014.0
20260903224526 36 61 4.8 6.4 0.00 0.00 0.00 49 1013.9
20260903224433 36 57 4.8 6.4 0.00 0.00 0.00 50 1013.9
20260903224319 36 81 3.2 6.4 0.00 0.00 0.00 50 1013.9
20260903224246 36 40 3.2 6.4 0.00 0.00 0.00 50 1013.9
20260903224133 36 79 4.8 6.4 0.00 0.00 0.00 49 1013.9
20260903224044 36 99 4.8 6.4 0.00 0.00 0.00 50 1013.9
20260903223930 36 36 3.2 6.4 0.00 0.00 0.00 49 1013.8
20260903223835 35 63 3.2 6.4 0.00 0.00 0.00 50 1013.9
20260903223723 35 54 3.2 8.0 0.00 0.00 0.00 50 1013.9
20260903223629 35 59 3.2 8.0 0.00 0.00 0.00 50 1013.9
20260903223536 35 54 4.8 8.0 0.00 0.00 0.00 50 1013.9
20260903223427 35 55 3.2 8.0 0.00 0.00 0.00 50 1013.9
20260903223334 35 59 3.2 8.0 0.00 0.00 0.00 51 1013.8
20260903223304 35 58 3.2 8.0 0.00 0.00 0.00 49 1013.8
20260903223017 35 81 4.8 8.0 0.00 0.00 0.00 50 1013.8
20260903222924 35 78 6.4 8.0 0.00 0.00 0.00 49 1013.8
20260903222834 35 68 4.8 8.0 0.00 0.00 0.00 50 1013.8
20260903222720 35 72 3.2 8.0 0.00 0.00 0.00 51 1013.7
20260903222626 35 58 3.2 8.0 0.00 0.00 0.00 50 1013.7
20260903222533 35 110 4.8 9.7 0.00 0.00 0.00 50 1013.8
20260903222420 35 72 4.8 9.7 0.00 0.00 0.00 51 1013.8
20260903222331 35 74 3.2 9.7 0.00 0.00 0.00 52 1013.8
20260903222239 35 5 4.8 12.9 0.00 0.00 0.00 52 1013.8
20260903222123 35 113 4.8 12.9 0.00 0.00 0.00 51 1013.9
20260903222029 35 123 4.8 12.9 0.00 0.00 0.00 53 1013.8
20260903221936 35 69 4.8 12.9 0.00 0.00 0.00 52 1013.8
20260903221822 35 76 6.4 12.9 0.00 0.00 0.00 51 1013.8
20260903221756 35 82 6.4 12.9 0.00 0.00 0.00 52 1013.8
20260903221528 35 131 6.4 12.9 0.00 0.00 0.00 52 1013.9
20260903221435 35 105 6.4 12.9 0.00 0.00 0.00 52 1013.9
20260903221322 35 134 6.4 12.9 0.00 0.00 0.00 51 1013.9
20260903221229 35 111 6.4 12.9 0.00 0.00 0.00 51 1013.8
20260903221121 35 109 4.8 12.9 0.00 0.00 0.00 53 1013.8
20260903221028 35 96 6.4 12.9 0.00 0.00 0.00 51 1013.8
20260903220934 35 80 6.4 12.9 0.00 0.00 0.00 51 1013.8
20260903220820 35 115 8.0 12.9 0.00 0.00 0.00 52 1013.8
20260903220748 35 109 9.7 12.9 0.00 0.00 0.00 51 1013.8
20260903220634 35 120 8.0 12.9 0.00 0.00 0.00 53 1013.8
20260903220524 35 126 6.4 11.3 0.00 0.00 0.00 51 1013.8
20260903220430 35 82 4.8 11.3 0.00 0.00 0.00 51 1013.8
20260903220359 35 106 4.8 11.3 0.00 0.00 0.00 52 1013.8
20260903220330 35 84 4.8 9.7 0.00 0.00 0.00 52 1013.9
20260903220042 35 114 8.0 12.9 0.00 0.00 0.00 51 1013.8
20260903215931 35 103 6.4 14.5 0.00 0.00 0.00 51 1013.8
20260903215818 35 100 3.2 14.5 0.00 0.00 0.00 52 1013.7
20260903215723 35 119 3.2 14.5 0.00 0.00 0.00 53 1013.7
20260903215631 35 72 4.8 14.5 0.00 0.00 0.00 52 1013.7
20260903215518 35 88 6.4 14.5 0.00 0.00 0.00 51 1013.7
20260903215425 35 82 6.4 14.5 0.00 0.00 0.00 51 1013.7
20260903215334 35 84 6.4 14.5 0.00 0.00 0.00 50 1013.7
20260903215242 35 96 8.0 14.5 0.00 0.00 0.00 51 1013.6
20260903215128 35 36 8.0 14.5 0.00 0.00 0.00 50 1013.7
20260903215034 35 78 8.0 14.5 0.00 0.00 0.00 51 1013.6
20260903214920 35 113 8.0 14.5 0.00 0.00 0.00 52 1013.7
20260903214826 35 114 9.7 14.5 0.00 0.00 0.00 52 1013.7
20260903214801 35 79 8.0 14.5 0.00 0.00 0.00 51 1013.7
20260903214534 35 49 4.8 14.5 0.00 0.00 0.00 51 1013.7
20260903214440 35 11 4.8 17.7 0.00 0.00 0.00 51 1013.7
20260903214326 35 42 4.8 17.7 0.00 0.00 0.00 52 1013.7
20260903214251 35 80 6.4 17.7 0.00 0.00 0.00 52 1013.7
20260903214121 35 67 9.7 17.7 0.00 0.00 0.00 52 1013.8
20260903214048 35 72 9.7 17.7 0.00 0.00 0.00 51 1013.8
20260903213935 35 64 8.0 17.7 0.00 0.00 0.00 51 1013.8
20260903213821 35 66 6.4 17.7 0.00 0.00 0.00 51 1013.9
20260903213727 35 61 8.0 17.7 0.00 0.00 0.00 51 1013.9
20260903213655 35 20 9.7 17.7 0.00 0.00 0.00 50 1013.8
20260903213526 35 61 9.7 17.7 0.00 0.00 0.00 51 1013.8
20260903213432 35 84 8.0 17.7 0.00 0.00 0.00 51 1013.9
20260903213359 35 78 6.4 17.7 0.00 0.00 0.00 51 1013.9
20260903213329 35 71 6.4 17.7 0.00 0.00 0.00 50 1013.9
20260903213022 35 5 9.7 19.3 0.00 0.00 0.00 50 1013.9
20260903212933 35 69 8.0 19.3 0.00 0.00 0.00 49 1014.0
20260903212820 35 77 9.7 20.9 0.00 0.00 0.00 49 1014.0
20260903212727 35 105 11.3 20.9 0.00 0.00 0.00 49 1013.9
20260903212633 35 85 12.9 20.9 0.00 0.00 0.00 49 1013.9
20260903212521 35 27 9.7 20.9 0.00 0.00 0.00 49 1014.0
20260903212428 35 80 6.4 22.5 0.00 0.00 0.00 49 1014.0
20260903212317 35 60 8.0 22.5 0.00 0.00 0.00 48 1013.9
20260903212224 35 9 9.7 22.5 0.00 0.00 0.00 48 1014.0
20260903212130 36 46 9.7 22.5 0.00 0.00 0.00 48 1013.9
20260903212036 36 61 11.3 24.1 0.00 0.00 0.00 48 1013.9
20260903211922 36 83 12.9 24.1 0.00 0.00 0.00 48 1014.0
20260903211829 36 60 12.9 24.1 0.00 0.00 0.00 48 1013.9
20260903211804 36 64 11.3 24.1 0.00 0.00 0.00 49 1013.9
20260903211537 36 37 6.4 24.1 0.00 0.00 0.00 49 1014.0
20260903211443 36 320 8.0 24.1 0.00 0.00 0.00 49 1014.0
20260903211246 36 22 17.7 24.1 0.00 0.00 0.00 49 1014.0
20260903211131 37 31 16.1 24.1 0.00 0.00 0.00 49 1014.0
20260903211022 37 61 12.9 22.5 0.00 0.00 0.00 49 1014.1
20260903210928 37 26 9.7 17.7 0.00 0.00 0.00 49 1014.0
20260903210856 37 38 8.0 17.7 0.00 0.00 0.00 48 1013.8
20260903210721 36 39 8.0 17.7 0.00 0.00 0.00 49 1014.0
20260903210649 36 24 8.0 17.7 0.00 0.00 0.00 49 1014.0
20260903210555 36 58 9.7 17.7 0.00 0.00 0.00 51 1013.9
20260903210422 36 73 9.7 17.7 0.00 0.00 0.00 50 1013.9
20260903210334 36 30 9.7 17.7 0.00 0.00 0.00 53 1013.9
20260903210305 36 88 11.3 17.7 0.00 0.00 0.00 53 1013.9
20260903210038 36 29 6.4 12.9 0.00 0.00 0.00 49 1014.0
20260903205923 36 50 4.8 11.3 0.00 0.00 0.00 49 1014.0
20260903205830 36 66 3.2 11.3 0.00 0.00 0.00 51 1013.9
20260903205722 36 15 4.8 11.3 0.00 0.00 0.00 51 1013.9
20260903205629 36 162 6.4 11.3 0.00 0.00 0.00 48 1014.0
20260903205556 36 140 8.0 11.3 0.00 0.00 0.00 50 1014.0
20260903205422 36 132 4.8 11.3 0.00 0.00 0.00 50 1013.9
20260903205349 36 139 3.2 9.7 0.00 0.00 0.00 49 1014.0
20260903205235 36 92 4.8 9.7 0.00 0.00 0.00 51 1014.0
20260903205126 36 117 4.8 9.7 0.00 0.00 0.00 50 1014.0
20260903205034 36 96 4.8 9.7 0.00 0.00 0.00 49 1014.0
20260903204921 36 336 3.2 8.0 0.00 0.00 0.00 49 1014.0
20260903204802 37 150 3.2 8.0 0.00 0.00 0.00 49 1014.0
20260903204535 37 229 4.8 14.5 0.00 0.00 0.00 50 1014.1
20260903204442 37 215 3.2 14.5 0.00 0.00 0.00 49 1014.0
20260903204329 37 118 3.2 14.5 0.00 0.00 0.00 52 1014.0
20260903204255 37 109 4.8 14.5 0.00 0.00 0.00 49 1014.0
20260903204121 37 127 4.8 14.5 0.00 0.00 0.00 48 1014.1
20260903204049 37 107 3.2 14.5 0.00 0.00 0.00 48 1014.0
20260903203938 37 210 8.0 14.5 0.00 0.00 0.00 49 1014.1
20260903203826 37 240 8.0 14.5 0.00 0.00 0.00 48 1014.0
20260903203733 37 254 6.4 16.1 0.00 0.00 0.00 49 1014.0
20260903203640 37 212 6.4 16.1 0.00 0.00 0.00 50 1014.2
20260903203525 37 227 6.4 16.1 0.00 0.00 0.00 50 1014.1
20260903203432 37 225 4.8 16.1 0.00 0.00 0.00 52 1014.1
20260903203322 37 225 6.4 16.1 0.00 0.00 0.00 50 1014.1
20260903203253 37 187 6.4 16.1 0.00 0.00 0.00 49 1014.1
20260903203025 37 209 8.0 16.1 0.00 0.00 0.00 50 1014.2
20260903202931 37 216 8.0 16.1 0.00 0.00 0.00 50 1014.3
20260903202818 37 199 4.8 9.7 0.00 0.00 0.00 50 1014.2
20260903202729 37 274 6.4 12.9 0.00 0.00 0.00 51 1014.3
20260903202635 37 232 4.8 12.9 0.00 0.00 0.00 50 1014.3
20260903202522 37 236 1.6 16.1 0.00 0.00 0.00 50 1014.3
20260903202430 37 162 3.2 16.1 0.00 0.00 0.00 49 1014.3
20260903202336 37 136 3.2 16.1 0.00 0.00 0.00 49 1014.4
20260903202226 37 171 4.8 16.1 0.00 0.00 0.00 47 1014.4
20260903202134 37 186 6.4 16.1 0.00 0.00 0.00 47 1014.4
20260903202019 37 182 8.0 17.7 0.00 0.00 0.00 49 1014.5
20260903201926 37 168 9.7 20.9 0.00 0.00 0.00 50 1014.4
20260903201852 37 146 11.3 20.9 0.00 0.00 0.00 49 1014.5
20260903201801 37 171 11.3 20.9 0.00 0.00 0.00 49 1014.5
20260903201538 37 170 9.7 20.9 0.00 0.00 0.00 50 1014.5
20260903201424 37 171 9.7 20.9 0.00 0.00 0.00 48 1014.5
20260903201351 37 196 11.3 20.9 0.00 0.00 0.00 49 1014.5
20260903201218 37 194 12.9 20.9 0.00 0.00 0.00 49 1014.5
20260903201123 37 183 8.0 20.9 0.00 0.00 0.00 49 1014.5
20260903201029 37 185 6.4 14.5 0.00 0.00 0.00 52 1014.5
20260903200920 37 131 6.4 14.5 0.00 0.00 0.00 49 1014.5
20260903200847 37 201 4.8 14.5 0.00 0.00 0.00 50 1014.5
20260903200733 37 240 8.0 14.5 0.00 0.00 0.00 49 1014.5
20260903200620 37 223 9.7 14.5 0.00 0.00 0.00 49 1014.6
20260903200527 37 223 8.0 14.5 0.00 0.00 0.00 49 1014.6
20260903200433 37 209 4.8 16.1 0.00 0.00 0.00 49 1014.6
20260903200400 36 214 3.2 12.9 0.00 0.00 0.00 49 1014.6
20260903200314 36 218 4.8 12.9 0.00 0.00 0.00 49 1014.6
20260903200026 36 205 6.4 16.1 0.00 0.00 0.00 50 1014.6
20260903195933 36 209 4.8 16.1 0.00 0.00 0.00 49 1014.6
20260903195819 36 189 4.8 16.1 0.00 0.00 0.00 48 1014.7
20260903195729 36 202 6.4 16.1 0.00 0.00 0.00 49 1014.7
20260903195635 36 273 8.0 16.1 0.00 0.00 0.00 48 1014.7
20260903195522 36 192 8.0 16.1 0.00 0.00 0.00 49 1014.7
20260903195430 36 183 8.0 16.1 0.00 0.00 0.00 48 1014.7
20260903195317 36 200 9.7 16.1 0.00 0.00 0.00 50 1014.6
20260903195224 36 205 8.0 16.1 0.00 0.00 0.00 50 1014.6
20260903195134 36 205 4.8 11.3 0.00 0.00 0.00 50 1014.8
20260903195021 36 201 3.2 11.3 0.00 0.00 0.00 50 1014.7
20260903194927 36 210 3.2 11.3 0.00 0.00 0.00 49 1014.7
20260903194834 36 178 6.4 11.3 0.00 0.00 0.00 52 1014.7
20260903194809 36 178 6.4 11.3 0.00 0.00 0.00 49 1014.7
20260903194521 36 207 8.0 11.3 0.00 0.00 0.00 49 1014.8
20260903194429 36 182 6.4 11.3 0.00 0.00 0.00 49 1014.9
20260903194354 36 171 6.4 11.3 0.00 0.00 0.00 51 1014.8
20260903194219 36 200 6.4 11.3 0.00 0.00 0.00 50 1014.9
20260903194126 36 210 6.4 11.3 0.00 0.00 0.00 49 1014.9
20260903194018 36 204 4.8 11.3 0.00 0.00 0.00 51 1014.9
20260903193945 36 171 4.8 11.3 0.00 0.00 0.00 50 1014.9
20260903193852 36 188 4.8 9.7 0.00 0.00 0.00 49 1014.8
20260903193719 36 162 4.8 9.7 0.00 0.00 0.00 49 1015.0
20260903193627 36 273 3.2 9.7 0.00 0.00 0.00 49 1014.9
20260903193534 36 238 1.6 9.7 0.00 0.00 0.00 50 1014.9
20260903193424 36 184 3.2 9.7 0.00 0.00 0.00 49 1014.9
20260903193331 36 220 3.2 9.7 0.00 0.00 0.00 49 1014.9
20260903193303 36 220 4.8 9.7 0.00 0.00 0.00 50 1014.9
20260903193036 36 232 4.8 8.0 0.00 0.00 0.00 50 1015.1
20260903192922 36 9 6.4 8.0 0.00 0.00 0.00 49 1015.1
20260903192834 36 99 6.4 8.0 0.00 0.00 0.00 49 1015.1
20260903192719 36 117 4.8 8.0 0.00 0.00 0.00 51 1015.0
20260903192627 36 53 4.8 8.0 0.00 0.00 0.00 51 1015.0
20260903192533 36 94 4.8 8.0 0.00 0.00 0.00 50 1015.0
20260903192420 36 35 3.2 6.4 0.00 0.00 0.00 50 1015.1
20260903192330 36 30 1.6 6.4 0.00 0.00 0.00 50 1015.0
20260903192236 36 50 1.6 6.4 0.00 0.00 0.00 50 1015.0
20260903192124 36 275 3.2 6.4 0.00 0.00 0.00 50 1015.0
20260903192030 36 210 3.2 11.3 0.00 0.00 0.00 50 1015.1
20260903191935 35 234 3.2 12.9 0.00 0.00 0.00 51 1015.1
20260903191823 35 205 1.6 12.9 0.00 0.00 0.00 51 1015.1
20260903191758 35 250 1.6 12.9 0.00 0.00 0.00 51 1015.1
20260903191531 35 334 1.6 12.9 0.00 0.00 0.00 50 1015.2
20260903191439 35 40 4.8 12.9 0.00 0.00 0.00 52 1015.3
20260903191325 35 104 6.4 12.9 0.00 0.00 0.00 52 1015.3
20260903191232 35 120 8.0 12.9 0.00 0.00 0.00 53 1015.3
20260903191123 35 130 6.4 12.9 0.00 0.00 0.00 52 1015.3
20260903191050 35 109 3.2 12.9 0.00 0.00 0.00 50 1015.4
20260903190957 35 112 1.6 3.2 0.00 0.00 0.00 51 1015.4
20260903190821 35 221 1.6 4.8 0.00 0.00 0.00 51 1015.4
20260903190729 35 184 0.0 8.0 0.00 0.00 0.00 51 1015.5
20260903190634 35 144 1.6 8.0 0.00 0.00 0.00 50 1015.5
20260903190546 35 144 1.6 8.0 0.00 0.00 0.00 51 1015.4
20260903190431 35 144 0.0 8.0 0.00 0.00 0.00 50 1015.5
20260903190357 35 144 0.0 8.0 0.00 0.00 0.00 50 1015.5
20260903190328 35 144 1.6 12.9 0.00 0.00 0.00 50 1015.4
20260903190038 35 144 4.8 12.9 0.00 0.00 0.00 53 1015.6
20260903185924 35 190 4.8 12.9 0.00 0.00 0.00 52 1015.5
20260903185836 35 191 4.8 14.5 0.00 0.00 0.00 54 1015.5
20260903185722 35 109 4.8 14.5 0.00 0.00 0.00 53 1015.6
20260903185628 35 130 6.4 14.5 0.00 0.00 0.00 53 1015.6
20260903185535 35 134 6.4 14.5 0.00 0.00 0.00 52 1015.5
20260903185422 35 136 8.0 14.5 0.00 0.00 0.00 52 1015.5
20260903185333 35 136 8.0 14.5 0.00 0.00 0.00 53 1015.5
20260903185219 35 176 8.0 14.5 0.00 0.00 0.00 54 1015.6
20260903185127 35 187 9.7 14.5 0.00 0.00 0.00 55 1015.5
20260903185035 35 178 11.3 14.5 0.00 0.00 0.00 54 1015.5
20260903184942 35 142 6.4 12.9 0.00 0.00 0.00 55 1015.6
20260903184828 35 119 3.2 12.9 0.00 0.00 0.00 54 1015.5
20260903184802 35 118 1.6 4.8 0.00 0.00 0.00 52 1015.5
20260903184536 35 49 3.2 4.8 0.00 0.00 0.00 51 1015.7
20260903184423 35 98 3.2 6.4 0.00 0.00 0.00 51 1015.6
20260903184330 35 164 1.6 6.4 0.00 0.00 0.00 52 1015.6
20260903184220 35 232 1.6 8.0 0.00 0.00 0.00 51 1015.6
20260903184128 35 273 1.6 8.0 0.00 0.00 0.00 51 1015.6
20260903184035 35 273 3.2 8.0 0.00 0.00 0.00 51 1015.8
20260903183942 35 274 3.2 8.0 0.00 0.00 0.00 51 1015.8
20260903183827 35 276 3.2 8.0 0.00 0.00 0.00 51 1015.7
20260903183733 35 276 3.2 8.0 0.00 0.00 0.00 51 1015.7
20260903183624 35 304 3.2 8.0 0.00 0.00 0.00 51 1015.7
20260903183529 35 290 4.8 8.0 0.00 0.00 0.00 51 1015.7
20260903183436 35 36 4.8 9.7 0.00 0.00 0.00 51 1015.6
20260903183323 35 44 3.2 12.9 0.00 0.00 0.00 51 1015.7
20260903183253 35 5 4.8 12.9 0.00 0.00 0.00 51 1015.7
20260903183050 35 84 4.8 12.9 0.00 0.00 0.00 50 1015.8
20260903182937 35 122 4.8 12.9 0.00 0.00 0.00 50 1015.8
20260903182823 35 48 4.8 12.9 0.00 0.00 0.00 50 1015.8
20260903182731 35 74 4.8 12.9 0.00 0.00 0.00 49 1015.9
20260903182638 35 70 4.8 12.9 0.00 0.00 0.00 50 1015.9
20260903182524 36 65 4.8 12.9 0.00 0.00 0.00 51 1015.8
20260903182450 36 119 6.4 12.9 0.00 0.00 0.00 50 1015.9
20260903182320 36 83 6.4 12.9 0.00 0.00 0.00 51 1015.8
20260903182225 36 113 6.4 12.9 0.00 0.00 0.00 50 1015.8
20260903182132 36 67 8.0 12.9 0.00 0.00 0.00 51 1015.9
20260903182019 36 74 8.0 12.9 0.00 0.00 0.00 51 1015.9
20260903181926 36 71 8.0 12.9 0.00 0.00 0.00 52 1015.9
20260903181837 36 103 6.4 12.9 0.00 0.00 0.00 52 1015.9
20260903181808 36 54 4.8 9.7 0.00 0.00 0.00 52 1015.9
20260903181542 35 82 1.6 9.7 0.00 0.00 0.00 53 1016.0
20260903181448 35 28 1.6 9.7 0.00 0.00 0.00 51 1016.1
20260903181335 35 322 1.6 9.7 0.00 0.00 0.00 53 1016.0
20260903181225 35 355 1.6 9.7 0.00 0.00 0.00 51 1016.1
20260903181131 35 19 3.2 9.7 0.00 0.00 0.00 51 1016.1
20260903181018 35 355 4.8 9.7 0.00 0.00 0.00 51 1016.1
20260903180925 36 355 6.4 9.7 0.00 0.00 0.00 52 1016.0
20260903180833 36 312 6.4 9.7 0.00 0.00 0.00 51 1016.2
20260903180740 36 355 4.8 11.3 0.00 0.00 0.00 51 1016.2
20260903180631 36 318 3.2 8.0 0.00 0.00 0.00 50 1016.2
20260903180519 36 144 3.2 11.3 0.00 0.00 0.00 53 1016.2
20260903180427 36 162 3.2 11.3 0.00 0.00 0.00 51 1016.2
20260903180354 36 124 4.8 14.5 0.00 0.00 0.00 51 1016.1
20260903180303 36 136 4.8 14.5 0.00 0.00 0.00 51 1016.1
20260903180020 36 95 4.8 14.5 0.00 0.00 0.00 50 1016.2
20260903175927 36 130 4.8 14.5 0.00 0.00 0.00 51 1016.2
20260903175833 36 129 4.8 14.5 0.00 0.00 0.00 49 1016.1
20260903175720 36 30 6.4 14.5 0.00 0.00 0.00 49 1016.2
20260903175627 36 43 8.0 14.5 0.00 0.00 0.00 49 1016.2
20260903175532 36 49 8.0 14.5 0.00 0.00 0.00 49 1016.2
20260903175443 36 90 6.4 12.9 0.00 0.00 0.00 51 1016.2
20260903175331 36 32 4.8 11.3 0.00 0.00 0.00 49 1016.3
20260903175217 36 39 3.2 11.3 0.00 0.00 0.00 52 1016.2
20260903175123 36 60 3.2 11.3 0.00 0.00 0.00 50 1016.3
20260903175050 36 16 6.4 11.3 0.00 0.00 0.00 52 1016.2
20260903174935 36 53 8.0 12.9 0.00 0.00 0.00 51 1016.3
20260903174826 36 48 6.4 11.3 0.00 0.00 0.00 53 1016.2
20260903174757 36 24 4.8 9.7 0.00 0.00 0.00 51 1016.2
20260903174550 36 49 3.2 11.3 0.00 0.00 0.00 55 1016.2
20260903174417 36 355 3.2 11.3 0.00 0.00 0.00 53 1016.3
20260903174321 36 327 4.8 11.3 0.00 0.00 0.00 52 1016.3
20260903174248 36 355 3.2 11.3 0.00 0.00 0.00 54 1016.3
20260903174134 36 337 3.2 11.3 0.00 0.00 0.00 51 1016.3
20260903174040 36 39 3.2 14.5 0.00 0.00 0.00 53 1016.3
20260903173926 36 39 4.8 14.5 0.00 0.00 0.00 52 1016.3
20260903173834 36 42 6.4 14.5 0.00 0.00 0.00 53 1016.3
20260903173721 36 32 8.0 14.5 0.00 0.00 0.00 52 1016.4
20260903173628 36 45 6.4 14.5 0.00 0.00 0.00 51 1016.4
20260903173517 36 86 6.4 14.5 0.00 0.00 0.00 52 1016.4
20260903173424 36 40 6.4 14.5 0.00 0.00 0.00 54 1016.4
20260903173351 36 35 6.4 14.5 0.00 0.00 0.00 54 1016.5
20260903173259 36 9 4.8 14.5 0.00 0.00 0.00 53 1016.5
20260903173032 36 55 1.6 12.9 0.00 0.00 0.00 51 1016.4
20260903172922 36 269 1.6 12.9 0.00 0.00 0.00 52 1016.5
20260903172830 36 89 1.6 12.9 0.00 0.00 0.00 50 1016.5
20260903172737 36 94 4.8 12.9 0.00 0.00 0.00 50 1016.5
20260903172622 36 90 6.4 12.9 0.00 0.00 0.00 51 1016.5
20260903172530 36 65 6.4 12.9 0.00 0.00 0.00 54 1016.5
20260903172419 36 91 8.0 12.9 0.00 0.00 0.00 55 1016.5
20260903172325 36 100 4.8 12.9 0.00 0.00 0.00 56 1016.5
20260903172233 36 171 3.2 11.3 0.00 0.00 0.00 56 1016.5
20260903172139 36 29 3.2 8.0 0.00 0.00 0.00 52 1016.6
20260903172024 36 82 3.2 8.0 0.00 0.00 0.00 54 1016.6
20260903171951 36 348 4.8 8.0 0.00 0.00 0.00 52 1016.6
20260903171817 36 267 4.8 8.0 0.00 0.00 0.00 54 1016.6
20260903171753 36 236 4.8 8.0 0.00 0.00 0.00 54 1016.6
20260903171525 36 347 4.8 8.0 0.00 0.00 0.00 53 1016.7
20260903171433 36 340 4.8 9.7 0.00 0.00 0.00 52 1016.7
20260903171320 36 349 3.2 9.7 0.00 0.00 0.00 53 1016.8
20260903171231 36 304 3.2 9.7 0.00 0.00 0.00 54 1016.7
20260903171117 36 10 4.8 9.7 0.00 0.00 0.00 55 1016.8
20260903171043 36 9 4.8 9.7 0.00 0.00 0.00 56 1016.7
20260903170929 36 344 6.4 9.7 0.00 0.00 0.00 58 1016.8
20260903170836 36 339 4.8 9.7 0.00 0.00 0.00 56 1016.8
20260903170742 36 10 4.8 9.7 0.00 0.00 0.00 52 1016.7
20260903170629 36 153 6.4 9.7 0.00 0.00 0.00 54 1016.8
20260903170540 36 51 4.8 9.7 0.00 0.00 0.00 55 1016.7
20260903170425 36 24 4.8 9.7 0.00 0.00 0.00 54 1016.8
20260903170332 36 35 4.8 9.7 0.00 0.00 0.00 55 1016.8
20260903170303 36 27 3.2 9.7 0.00 0.00 0.00 55 1016.8
20260903170019 36 30 4.8 9.7 0.00 0.00 0.00 56 1016.9
20260903165926 36 5 6.4 9.7 0.00 0.00 0.00 57 1016.9
20260903165832 35 5 6.4 9.7 0.00 0.00 0.00 60 1016.8
20260903165720 35 37 4.8 9.7 0.00 0.00 0.00 59 1016.8
20260903165627 35 9 3.2 9.7 0.00 0.00 0.00 59 1016.9
20260903165534 35 334 3.2 8.0 0.00 0.00 0.00 57 1017.0
20260903165424 35 332 3.2 9.7 0.00 0.00 0.00 57 1017.0
20260903165330 35 294 4.8 9.7 0.00 0.00 0.00 59 1016.9
20260903165256 35 360 6.4 9.7 0.00 0.00 0.00 59 1016.9
20260903165122 35 65 3.2 9.7 0.00 0.00 0.00 58 1017.0
20260903165028 35 36 1.6 9.7 0.00 0.00 0.00 56 1016.9
20260903164935 35 75 3.2 9.7 0.00 0.00 0.00 58 1017.0
20260903164847 35 52 4.8 9.7 0.00 0.00 0.00 57 1017.0
20260903164755 35 33 4.8 9.7 0.00 0.00 0.00 56 1017.0
20260903164548 35 194 4.8 9.7 0.00 0.00 0.00 55 1017.0
20260903164435 35 205 3.2 9.7 0.00 0.00 0.00 56 1017.0
20260903164341 35 166 1.6 9.7 0.00 0.00 0.00 57 1017.0
20260903164227 35 142 3.2 9.7 0.00 0.00 0.00 57 1017.1
20260903164118 35 96 3.2 9.7 0.00 0.00 0.00 57 1017.1
20260903164025 35 86 4.8 9.7 0.00 0.00 0.00 53 1017.1
20260903163932 35 111 4.8 9.7 0.00 0.00 0.00 55 1017.0
20260903163817 35 79 3.2 9.7 0.00 0.00 0.00 55 1017.0
20260903163723 35 90 3.2 9.7 0.00 0.00 0.00 57 1017.1
20260903163635 35 45 4.8 9.7 0.00 0.00 0.00 56 1017.0
20260903163520 35 24 3.2 9.7 0.00 0.00 0.00 55 1017.2
20260903163428 35 134 3.2 9.7 0.00 0.00 0.00 55 1017.1
20260903163334 35 134 3.2 12.9 0.00 0.00 0.00 58 1017.1
20260903163305 35 133 3.2 12.9 0.00 0.00 0.00 58 1017.1
20260903163041 35 325 3.2 12.9 0.00 0.00 0.00 58 1017.1
20260903162926 35 13 4.8 12.9 0.00 0.00 0.00 59 1017.1
20260903162832 35 46 4.8 12.9 0.00 0.00 0.00 59 1017.1
20260903162757 35 32 4.8 12.9 0.00 0.00 0.00 60 1017.1
20260903162623 35 10 6.4 12.9 0.00 0.00 0.00 59 1017.1
20260903162549 35 355 6.4 12.9 0.00 0.00 0.00 59 1017.2
20260903162436 35 19 6.4 12.9 0.00 0.00 0.00 59 1017.2
20260903162348 35 5 3.2 9.7 0.00 0.00 0.00 61 1017.2
20260903162233 35 137 4.8 9.7 0.00 0.00 0.00 60 1017.2
20260903162122 35 133 4.8 9.7 0.00 0.00 0.00 61 1017.2
20260903162029 35 108 3.2 9.7 0.00 0.00 0.00 60 1017.2
20260903161935 35 55 1.6 8.0 0.00 0.00 0.00 58 1017.2
20260903161903 35 157 1.6 8.0 0.00 0.00 0.00 58 1017.2
20260903161817 35 211 1.6 8.0 0.00 0.00 0.00 58 1017.2
20260903161529 35 295 3.2 8.0 0.00 0.00 0.00 58 1017.3
20260903161436 35 288 4.8 8.0 0.00 0.00 0.00 59 1017.4
20260903161342 35 335 3.2 6.4 0.00 0.00 0.00 61 1017.3
20260903161227 35 336 1.6 8.0 0.00 0.00 0.00 59 1017.4
20260903161133 35 336 1.6 8.0 0.00 0.00 0.00 59 1017.3
20260903161024 35 94 3.2 8.0 0.00 0.00 0.00 58 1017.3
20260903160931 35 58 3.2 8.0 0.00 0.00 0.00 58 1017.3
20260903160817 35 51 3.2 9.7 0.00 0.00 0.00 59 1017.4
20260903160723 35 39 3.2 12.9 0.00 0.00 0.00 58 1017.3
20260903160630 35 21 3.2 12.9 0.00 0.00 0.00 58 1017.3
20260903160522 35 45 4.8 12.9 0.00 0.00 0.00 60 1017.4
20260903160429 35 28 4.8 12.9 0.00 0.00 0.00 59 1017.5
20260903160337 35 37 4.8 12.9 0.00 0.00 0.00 58 1017.4
20260903160307 35 5 4.8 12.9 0.00 0.00 0.00 58 1017.4
20260903160040 35 79 4.8 12.9 0.00 0.00 0.00 58 1017.4
20260903155946 35 16 4.8 12.9 0.00 0.00 0.00 58 1017.4
20260903155835 35 56 4.8 9.7 0.00 0.00 0.00 58 1017.4
20260903155721 35 51 6.4 9.7 0.00 0.00 0.00 59 1017.4
20260903155629 35 56 4.8 12.9 0.00 0.00 0.00 59 1017.4
20260903155536 35 338 3.2 12.9 0.00 0.00 0.00 59 1017.4
20260903155422 35 89 4.8 12.9 0.00 0.00 0.00 60 1017.4
20260903155350 35 73 4.8 12.9 0.00 0.00 0.00 59 1017.4
20260903155219 35 46 3.2 12.9 0.00 0.00 0.00 59 1017.5
20260903155126 35 49 3.2 12.9 0.00 0.00 0.00 58 1017.4
20260903155032 35 34 4.8 12.9 0.00 0.00 0.00 62 1017.4
20260903154917 35 42 4.8 12.9 0.00 0.00 0.00 61 1017.4
20260903154825 35 40 1.6 12.9 0.00 0.00 0.00 58 1017.5
20260903154759 35 30 1.6 9.7 0.00 0.00 0.00 58 1017.5
20260903154533 35 148 3.2 9.7 0.00 0.00 0.00 59 1017.4
20260903154420 35 121 3.2 9.7 0.00 0.00 0.00 60 1017.4
20260903154327 35 120 3.2 9.7 0.00 0.00 0.00 60 1017.4
20260903154218 35 26 3.2 9.7 0.00 0.00 0.00 59 1017.5
20260903154125 35 78 3.2 9.7 0.00 0.00 0.00 58 1017.5
20260903154033 35 33 4.8 9.7 0.00 0.00 0.00 59 1017.5
20260903153919 35 20 4.8 6.4 0.00 0.00 0.00 59 1017.4
20260903153826 35 355 3.2 8.0 0.00 0.00 0.00 59 1017.4
20260903153733 35 350 3.2 9.7 0.00 0.00 0.00 59 1017.4
20260903153625 35 309 3.2 9.7 0.00 0.00 0.00 59 1017.4
20260903153530 35 315 3.2 9.7 0.00 0.00 0.00 61 1017.4
20260903153418 35 5 3.2 9.7 0.00 0.00 0.00 59 1017.4
20260903153345 35 329 3.2 9.7 0.00 0.00 0.00 59 1017.5
20260903153316 34 355 4.8 9.7 0.00 0.00 0.00 59 1017.5
20260903153031 34 47 6.4 9.7 0.00 0.00 0.00 60 1017.4
20260903152919 34 35 6.4 9.7 0.00 0.00 0.00 60 1017.4
20260903152826 34 40 4.8 9.7 0.00 0.00 0.00 60 1017.4
20260903152732 34 46 4.8 9.7 0.00 0.00 0.00 62 1017.3
20260903152639 34 44 4.8 9.7 0.00 0.00 0.00 61 1017.4
20260903152544 34 55 1.6 9.7 0.00 0.00 0.00 60 1017.5
20260903152435 34 59 0.0 9.7 0.00 0.00 0.00 59 1017.4
20260903152322 34 89 1.6 9.7 0.00 0.00 0.00 61 1017.4
20260903152229 34 76 3.2 9.7 0.00 0.00 0.00 62 1017.4
20260903152117 34 30 6.4 9.7 0.00 0.00 0.00 61 1017.4
20260903152023 34 36 8.0 9.7 0.00 0.00 0.00 61 1017.4
20260903151932 34 42 6.4 9.7 0.00 0.00 0.00 61 1017.5
20260903151843 34 37 4.8 9.7 0.00 0.00 0.00 61 1017.4
20260903151813 34 37 4.8 9.7 0.00 0.00 0.00 60 1017.4
20260903151524 34 52 6.4 9.7 0.00 0.00 0.00 62 1017.4
20260903151432 34 65 4.8 9.7 0.00 0.00 0.00 62 1017.3
20260903151322 34 355 4.8 6.4 0.00 0.00 0.00 61 1017.4
20260903151229 34 342 3.2 6.4 0.00 0.00 0.00 61 1017.4
20260903151136 34 11 1.6 6.4 0.00 0.00 0.00 60 1017.4
20260903151023 34 348 1.6 6.4 0.00 0.00 0.00 60 1017.4
20260903150930 34 305 1.6 6.4 0.00 0.00 0.00 61 1017.3
20260903150857 34 305 3.2 6.4 0.00 0.00 0.00 60 1017.3
20260903150742 34 311 3.2 9.7 0.00 0.00 0.00 61 1017.3
20260903150633 34 346 4.8 9.7 0.00 0.00 0.00 61 1017.3
20260903150540 33 333 3.2 9.7 0.00 0.00 0.00 59 1017.3
20260903150426 33 342 1.6 9.7 0.00 0.00 0.00 60 1017.2
20260903150332 33 349 1.6 9.7 0.00 0.00 0.00 59 1017.3
20260903150305 33 349 3.2 9.7 0.00 0.00 0.00 59 1017.3
20260903150044 33 86 4.8 9.7 0.00 0.00 0.00 60 1017.3
20260903145948 33 42 4.8 9.7 0.00 0.00 0.00 61 1017.3
20260903145835 33 5 3.2 8.0 0.00 0.00 0.00 59 1017.3
20260903145721 33 32 1.6 4.8 0.00 0.00 0.00 60 1017.3
20260903145629 33 43 1.6 4.8 0.00 0.00 0.00 59 1017.3
20260903145535 33 58 1.6 4.8 0.00 0.00 0.00 60 1017.3
20260903145425 33 43 1.6 6.4 0.00 0.00 0.00 62 1017.2
20260903145332 33 32 3.2 6.4 0.00 0.00 0.00 62 1017.2
20260903145239 33 33 4.8 6.4 0.00 0.00 0.00 62 1017.2
20260903145126 33 26 3.2 6.4 0.00 0.00 0.00 62 1017.3
20260903145032 32 32 1.6 6.4 0.00 0.00 0.00 62 1017.2
20260903144920 32 63 1.6 6.4 0.00 0.00 0.00 62 1017.2
20260903144830 32 34 3.2 6.4 0.00 0.00 0.00 62 1017.3
20260903144801 32 34 3.2 6.4 0.00 0.00 0.00 64 1017.3
20260903144533 32 36 3.2 6.4 0.00 0.00 0.00 65 1017.2
20260903144438 32 316 1.6 3.2 0.00 0.00 0.00 65 1017.2
20260903144325 32 302 1.6 3.2 0.00 0.00 0.00 65 1017.1
20260903144257 32 311 1.6 3.2 0.00 0.00 0.00 64 1017.1
20260903144123 32 306 1.6 3.2 0.00 0.00 0.00 64 1017.1
20260903144030 32 292 1.6 3.2 0.00 0.00 0.00 64 1017.2
20260903143936 32 292 1.6 3.2 0.00 0.00 0.00 64 1017.2
20260903143822 32 309 1.6 3.2 0.00 0.00 0.00 64 1017.2
20260903143729 32 329 1.6 3.2 0.00 0.00 0.00 64 1017.2
20260903143619 32 309 0.0 3.2 0.00 0.00 0.00 63 1017.2
20260903143525 32 268 0.0 3.2 0.00 0.00 0.00 64 1017.2
20260903143432 32 268 0.0 4.8 0.00 0.00 0.00 64 1017.1
20260903143320 32 268 0.0 4.8 0.00 0.00 0.00 64 1017.2
20260903143254 32 268 0.0 4.8 0.00 0.00 0.00 64 1017.2
20260903143026 32 268 1.6 4.8 0.00 0.00 0.00 65 1017.2
20260903142953 32 268 1.6 4.8 0.00 0.00 0.00 65 1017.2
20260903142818 32 254 1.6 4.8 0.00 0.00 0.00 67 1017.2
20260903142726 32 255 1.6 4.8 0.00 0.00 0.00 67 1017.2
20260903142633 32 255 3.2 4.8 0.00 0.00 0.00 66 1017.2
20260903142523 32 260 3.2 4.8 0.00 0.00 0.00 66 1017.2
20260903142429 32 271 3.2 4.8 0.00 0.00 0.00 66 1017.2
20260903142336 32 254 3.2 4.8 0.00 0.00 0.00 67 1017.2
20260903142222 32 263 1.6 4.8 0.00 0.00 0.00 67 1017.3
20260903142149 32 254 1.6 4.8 0.00 0.00 0.00 67 1017.2
20260903142036 32 254 0.0 3.2 0.00 0.00 0.00 67 1017.2
20260903141928 32 232 0.0 3.2 0.00 0.00 0.00 68 1017.2
20260903141836 32 232 0.0 3.2 0.00 0.00 0.00 67 1017.2
20260903141807 32 232 0.0 3.2 0.00 0.00 0.00 68 1017.2
20260903141520 31 232 0.0 4.8 0.00 0.00 0.00 69 1017.2
20260903141425 31 232 0.0 4.8 0.00 0.00 0.00 69 1017.2
20260903141317 31 232 1.6 4.8 0.00 0.00 0.00 71 1017.2
20260903141244 31 232 0.0 4.8 0.00 0.00 0.00 70 1017.2
20260903141150 31 259 0.0 4.8 0.00 0.00 0.00 69 1017.3
20260903141035 31 265 0.0 4.8 0.00 0.00 0.00 70 1017.4
20260903140922 31 265 1.6 4.8 0.00 0.00 0.00 71 1017.3
20260903140829 31 265 1.6 4.8 0.00 0.00 0.00 70 1017.2
20260903140720 31 273 1.6 4.8 0.00 0.00 0.00 71 1017.3
20260903140627 31 292 3.2 4.8 0.00 0.00 0.00 72 1017.3
20260903140533 31 268 3.2 4.8 0.00 0.00 0.00 71 1017.3
20260903140419 31 262 3.2 4.8 0.00 0.00 0.00 71 1017.4
20260903140326 31 264 1.6 4.8 0.00 0.00 0.00 71 1017.4
20260903140301 31 250 1.6 6.4 0.00 0.00 0.00 71 1017.4
20260903140034 31 268 1.6 6.4 0.00 0.00 0.00 71 1017.3
20260903135920 31 292 3.2 6.4 0.00 0.00 0.00 72 1017.5
20260903135827 31 287 3.2 6.4 0.00 0.00 0.00 71 1017.4